ECMWFFLT1_925_spd_000.txt.gz
Wind_Speed
14 14 14 12 13 15 15 17 23 25 28 30 32 35 36 35 34 33 33 35 35 34 33 32 30 28 25 23 20 19 19 18 18 17 15 13 12 11 11 11 11 11 10 9 9 8 7 6 7 7 6 6 6 6 6 6 6 7 7 8 9 10 10
13 13 13 12 13 14 15 20 25 27 29 31 32 35 36 36 36 36 36 37 37 37 36 35 32 30 27 24 22 21 21 20 19 18 15 13 13 12 12 11 11 11 10 9 9 9 9 9 8 7 7 8 7 7 7 7 7 8 8 9 10 11 12
13 13 13 13 14 15 16 19 24 27 30 31 32 35 37 39 41 41 41 40 39 39 38 37 35 33 30 26 25 25 23 22 21 19 16 15 14 13 12 11 11 10 10 10 10 9 9 8 8 8 8 8 9 8 8 8 8 9 9 10 11 12 13
14 15 15 15 15 15 15 18 23 27 31 34 37 39 41 43 44 44 44 44 43 41 41 40 38 35 32 29 28 28 26 24 22 20 17 16 15 14 13 12 11 11 10 10 10 9 9 8 9 9 9 9 10 9 9 9 9 10 10 11 12 14 14
14 14 13 13 13 12 13 17 23 28 31 34 37 40 42 43 42 42 43 44 45 45 44 42 39 37 34 32 31 30 28 26 23 20 18 16 15 15 15 13 13 12 10 10 10 10 10 10 10 10 10 10 10 10 10 10 10 10 10 11 13 15 15
13 13 13 13 13 14 14 18 25 31 34 36 38 39 39 40 40 40 41 43 44 44 42 40 38 37 35 34 33 32 30 27 24 21 19 17 15 16 16 15 15 13 11 11 11 11 12 11 11 11 11 11 11 11 10 10 10 10 10 11 13 14 15
14 13 14 14 14 15 16 19 27 33 35 36 36 35 35 36 38 39 39 40 41 40 40 40 39 37 36 35 34 33 31 28 25 22 20 18 16 17 17 16 15 12 12 13 13 13 13 13 14 13 13 12 11 10 10 11 11 11 11 11 12 13 14
14 14 15 16 17 17 17 19 25 31 32 31 31 32 34 35 36 37 38 39 39 39 40 41 39 38 37 35 34 33 31 29 26 23 21 19 18 18 17 16 14 13 13 15 15 15 15 15 15 14 13 11 10 10 10 12 13 12 12 12 13 14 15
14 15 16 17 17 17 16 18 24 28 29 29 31 32 34 35 36 37 37 38 37 37 38 39 38 37 36 35 34 33 32 30 27 25 22 20 19 19 18 16 14 14 15 17 18 18 17 16 15 13 13 12 12 11 12 13 13 13 14 15 16 17 17
13 14 15 16 17 16 14 17 21 23 24 27 29 30 33 34 34 35 35 36 36 37 38 37 35 34 33 33 34 34 33 30 27 26 24 22 21 20 19 16 14 14 16 18 19 19 18 17 16 15 14 13 12 12 12 13 14 14 15 15 15 15 14
13 14 14 15 16 15 15 15 16 17 21 25 27 29 32 33 34 35 36 37 37 37 37 35 34 33 32 33 34 34 34 31 28 28 27 24 22 21 19 17 15 16 17 19 19 19 19 18 17 16 15 14 12 12 13 14 14 14 14 13 13 13 14
11 13 15 17 17 16 16 15 14 16 20 25 27 29 31 32 34 35 37 38 38 38 37 35 34 33 33 34 35 35 35 32 30 31 28 25 23 22 20 18 17 18 20 20 20 19 18 17 17 18 18 15 13 13 14 13 12 13 13 13 14 15 16
11 12 14 16 15 14 14 13 14 16 20 25 28 30 33 34 35 36 36 38 39 39 39 36 35 35 35 35 36 36 36 33 32 32 29 25 25 24 22 19 19 20 21 20 19 17 17 17 17 17 16 15 13 14 14 13 12 13 13 14 15 16 16
12 12 11 11 11 13 14 14 15 16 20 26 30 31 33 35 37 39 39 40 40 39 39 37 37 37 37 37 37 35 33 30 30 32 28 26 26 25 22 21 20 22 23 21 18 17 16 16 15 14 13 13 14 15 14 13 13 14 13 14 15 15 16
11 11 11 11 12 13 14 15 16 16 19 25 29 31 32 33 36 37 38 40 40 40 40 39 39 38 39 39 37 33 32 31 33 33 28 27 28 26 23 21 21 22 23 21 19 18 18 17 16 15 15 15 15 15 14 14 14 14 13 13 14 14 15
10 10 12 13 13 14 15 16 17 17 18 22 27 31 32 32 34 36 38 38 39 41 41 41 40 40 41 41 38 35 36 35 35 34 31 30 29 26 23 22 22 23 23 22 21 20 20 19 18 17 18 17 16 16 16 15 15 14 13 13 13 14 15
10 10 10 11 10 11 12 13 14 15 16 20 27 32 32 33 36 38 38 37 39 42 42 42 42 41 39 38 36 37 38 36 34 36 36 33 31 28 24 23 24 25 24 23 23 22 20 19 19 19 19 19 19 17 16 16 16 15 13 13 14 15 15
10 10 10 10 10 11 11 11 11 12 14 20 27 30 33 35 36 35 36 37 40 42 41 40 38 35 34 35 33 32 32 31 34 38 38 35 32 28 25 25 26 27 25 25 24 23 21 20 20 20 20 21 21 19 18 18 18 16 15 15 14 14 14
9 9 9 10 10 11 12 11 11 13 17 21 26 30 34 34 33 35 38 39 40 38 37 37 37 36 38 39 35 31 28 28 36 38 37 36 32 28 27 28 28 28 27 25 24 23 21 21 22 23 23 22 22 21 19 19 19 17 16 16 13 13 15
9 9 9 9 10 11 12 11 12 17 22 25 28 32 35 35 36 38 38 37 37 38 38 37 37 38 37 35 34 34 31 31 36 37 36 35 33 30 30 31 30 28 26 25 25 24 23 23 24 25 25 25 24 24 21 20 20 18 17 16 14 14 17
8 9 9 9 9 10 11 10 12 16 20 25 28 29 30 32 33 33 33 34 35 33 31 30 29 29 29 29 29 28 27 30 32 33 35 35 33 33 33 34 32 30 27 27 26 25 25 25 25 26 26 23 21 22 22 22 20 19 17 16 15 15 16
9 9 9 9 9 10 12 13 16 20 23 27 29 28 28 31 33 33 29 24 19 16 19 24 24 23 21 21 20 16 19 26 31 34 36 34 34 35 35 35 34 31 29 28 28 27 27 26 25 25 22 17 17 22 24 22 20 17 16 14 13 14 14
9 8 7 7 6 9 13 17 21 24 25 26 25 25 26 27 26 23 17 18 20 23 28 30 27 23 19 17 13 10 19 27 33 36 36 34 34 36 36 36 34 31 30 29 30 30 26 21 19 19 17 15 18 22 23 20 17 15 15 14 13 13 12
6 7 7 5 5 7 11 15 17 17 17 17 17 19 19 16 15 17 23 27 30 33 34 31 27 27 27 22 15 16 25 32 34 35 35 35 36 37 38 37 33 31 30 30 30 25 18 13 13 13 14 15 15 17 18 16 15 16 16 16 15 14 12
4 6 10 13 13 13 14 15 15 14 15 16 16 16 16 16 20 25 27 28 32 34 32 30 28 30 31 25 21 25 31 34 33 32 33 36 38 38 38 36 33 32 29 26 24 20 15 12 11 13 17 17 13 14 17 16 16 16 15 15 15 14 12
5 5 7 11 15 16 17 19 20 19 19 20 20 19 20 23 27 29 28 28 30 30 32 34 34 33 33 29 27 32 37 37 34 33 35 37 38 38 37 35 33 29 22 19 18 15 11 8 8 11 16 18 15 17 19 17 14 13 13 14 15 14 13
4 4 4 8 12 14 15 16 19 21 23 25 26 24 25 28 30 30 31 31 29 30 35 37 34 30 32 33 33 37 41 40 36 35 37 39 39 37 34 30 26 21 16 13 11 7 3 3 6 9 15 17 17 18 17 13 11 11 12 14 14 14 12
5 5 4 6 8 11 13 14 17 21 24 27 30 30 30 32 31 30 30 30 31 35 37 34 27 26 33 38 38 40 42 40 36 37 39 39 35 29 23 19 15 11 10 10 9 5 2 5 10 13 14 14 14 14 12 9 10 11 12 12 12 12 11
1 1 4 4 4 9 13 14 15 19 23 28 31 31 33 32 29 27 27 28 33 36 32 25 22 25 31 32 32 38 42 40 36 35 33 29 24 19 14 13 13 14 13 12 9 2 5 8 11 13 13 12 12 11 9 9 10 12 12 11 11 11 9
3 4 5 4 3 9 13 15 17 18 21 26 29 31 33 32 29 27 28 32 35 34 28 23 21 22 24 23 25 31 33 29 24 21 18 16 15 15 17 19 18 13 7 5 4 7 8 7 12 13 12 10 9 8 7 8 10 12 12 12 11 9 8
5 5 5 5 5 4 5 9 17 20 20 23 27 28 26 23 21 19 17 21 25 27 28 25 19 17 18 18 18 16 12 8 5 6 9 12 16 19 20 18 15 10 7 6 9 11 9 13 13 10 8 7 6 5 6 7 9 11 11 11 10 8 7
4 4 5 6 7 6 3 4 10 16 15 14 14 11 8 10 12 13 12 10 8 9 18 21 17 15 15 13 11 9 8 7 4 5 9 13 16 16 13 10 9 10 9 9 10 10 12 14 10 7 7 6 5 5 8 10 10 11 11 10 9 8 7
2 1 4 7 9 11 9 7 7 10 11 11 11 13 15 17 18 17 15 12 9 7 9 16 19 18 17 17 15 10 4 3 5 8 11 12 12 11 9 8 8 11 12 13 14 13 12 10 8 8 8 7 7 8 10 12 12 12 12 10 10 9 9
4 3 0 5 10 13 15 13 10 12 16 17 19 21 21 22 23 22 22 22 20 20 22 21 18 16 15 12 9 7 4 4 5 7 11 13 12 11 11 11 11 12 13 14 13 12 11 10 9 8 8 8 9 10 12 13 13 13 12 11 10 10 9
4 3 1 2 6 11 15 16 17 19 20 20 25 29 30 31 30 28 28 28 26 25 25 22 20 19 17 9 4 5 5 2 5 12 16 16 14 12 11 12 13 14 14 14 13 12 11 9 8 7 7 8 9 11 13 14 14 13 11 10 9 9 9
3 1 3 5 6 9 13 18 22 25 23 23 27 32 32 32 31 29 29 28 27 26 25 19 16 17 13 7 4 4 2 11 17 20 21 19 16 15 14 14 14 14 14 14 13 11 9 8 6 6 7 7 8 10 12 13 12 11 9 9 9 8 7
6 6 8 10 11 13 15 18 23 26 26 25 28 31 31 30 29 27 24 20 17 16 16 11 4 1 3 7 8 10 17 24 25 23 22 21 19 19 19 17 15 13 12 12 11 9 7 6 5 5 5 5 6 8 9 9 9 8 8 8 8 7 5
9 11 12 12 14 17 18 19 22 25 26 27 29 29 26 22 17 14 13 14 12 9 6 6 13 19 21 22 24 25 27 29 28 25 24 23 21 22 22 20 18 15 12 11 10 8 6 5 4 4 5 5 6 7 7 7 7 7 7 7 7 7 6

ECMWFFLT1_925_spd_006.txt.gz
Wind_Speed
12 14 14 13 13 14 14 16 20 23 25 27 29 31 32 33 34 34 35 37 38 38 37 37 36 36 35 34 34 33 32 30 28 28 27 26 26 26 26 26 24 23 23 23 21 20 18 16 15 15 14 12 10 8 8 7 6 6 6 5 5 4 4
12 13 13 13 13 14 15 17 22 24 25 27 28 29 31 32 34 35 37 38 40 40 39 37 36 36 35 35 34 33 32 30 28 28 27 26 25 25 25 24 23 22 22 22 21 20 18 16 15 15 15 14 11 9 8 7 6 6 6 5 5 5 6
12 13 14 14 14 15 15 17 21 25 26 27 28 29 32 35 37 39 39 38 39 40 37 36 36 37 36 35 35 34 32 30 29 29 27 26 25 25 24 23 22 21 21 21 21 20 19 17 16 16 16 15 12 11 9 9 8 7 6 7 7 7 8
14 15 15 15 15 15 15 16 20 25 27 29 32 33 36 39 40 39 38 38 38 37 37 37 37 37 36 36 35 33 32 31 31 30 28 26 25 24 24 23 23 21 21 21 21 20 18 18 18 18 17 15 13 12 11 11 11 9 8 9 9 9 10
15 14 13 13 14 14 14 15 19 24 27 29 32 35 37 38 37 35 35 36 36 36 36 34 33 34 35 35 35 35 35 34 33 31 30 27 25 25 25 25 23 21 21 21 21 20 19 19 19 19 17 16 14 14 13 13 13 11 10 11 11 11 11
13 13 13 13 14 14 14 15 21 27 30 31 34 36 37 36 35 35 36 35 35 34 33 31 31 34 35 36 36 37 37 37 35 34 31 29 27 27 27 25 23 21 21 22 21 20 20 19 19 19 18 16 16 15 15 15 13 12 12 13 13 12 12
12 12 13 14 14 14 14 16 21 28 30 32 33 34 34 33 33 36 36 34 34 34 32 32 34 35 36 37 37 38 39 38 37 35 33 31 29 28 27 24 22 22 23 23 22 21 20 19 19 19 18 17 17 17 16 15 14 13 14 14 14 13 12
14 13 13 14 14 14 14 14 19 25 27 28 28 29 31 31 33 34 34 35 36 35 35 36 36 37 38 37 37 38 38 38 38 37 36 33 30 29 27 23 22 23 24 24 23 20 19 19 19 19 19 19 19 18 17 16 15 14 13 13 13 13 12
12 12 13 14 13 13 13 13 18 23 25 27 28 30 32 33 34 34 36 37 37 36 38 39 38 38 37 36 37 38 39 39 40 39 37 35 33 31 28 25 24 25 25 24 22 20 19 20 21 21 20 20 20 19 18 17 15 14 14 14 13 12 12
10 11 12 12 12 11 10 12 16 18 20 24 27 29 31 32 33 34 36 36 36 37 39 39 36 36 35 36 37 38 39 41 41 40 38 37 35 32 29 26 25 25 26 24 22 21 20 21 22 22 22 22 21 19 18 16 15 15 15 14 13 13 13
9 9 10 10 11 10 10 12 13 14 17 22 25 27 30 31 33 34 34 34 35 36 37 36 35 34 35 36 37 37 39 41 42 42 41 39 36 33 30 27 27 28 28 26 24 23 22 22 23 23 23 23 21 19 17 16 15 15 15 14 13 14 14
8 8 10 12 12 11 12 12 12 13 16 21 24 26 28 30 31 32 32 33 34 34 33 33 33 33 34 35 36 37 39 40 42 43 41 37 34 31 27 26 27 29 29 27 26 24 24 23 24 24 25 23 21 19 18 17 17 17 16 15 14 15 16
8 8 9 11 11 11 11 11 12 14 16 20 24 26 28 29 29 30 30 32 33 32 30 30 31 33 34 35 36 38 40 41 42 40 33 28 26 25 23 25 27 28 28 28 26 25 25 25 25 25 25 23 21 20 19 19 18 18 18 16 16 17 17
8 8 8 9 9 11 11 12 12 12 14 19 22 23 25 26 27 28 29 30 30 30 29 30 32 34 34 35 37 38 41 42 39 34 29 28 27 26 27 30 30 29 29 29 27 26 26 26 26 25 25 23 22 21 20 19 19 20 20 19 18 18 18
10 10 10 11 11 11 11 12 12 12 13 16 19 21 22 24 25 26 27 28 28 29 31 32 34 35 35 36 37 39 39 33 27 27 31 34 34 33 34 35 33 30 29 29 28 27 26 27 26 25 25 23 22 20 19 19 19 19 19 19 18 18 18
12 13 13 12 12 11 12 12 11 10 10 12 16 19 20 21 22 24 25 26 26 28 31 33 34 34 34 34 35 34 27 15 16 22 31 38 39 39 38 35 32 30 30 30 30 28 27 27 26 25 25 23 21 20 20 20 20 19 18 18 18 18 19
13 14 13 12 11 10 10 9 8 8 8 11 16 19 19 20 21 22 24 24 25 28 30 31 31 31 32 33 32 27 20 19 24 31 39 44 43 40 37 32 30 30 29 31 32 30 28 28 27 26 25 23 21 21 20 20 20 19 18 18 18 18 20
16 15 12 11 11 10 9 9 9 10 10 12 15 17 19 20 19 21 23 24 25 27 27 28 30 30 30 30 27 24 24 28 34 40 45 46 40 35 34 33 31 28 27 29 31 31 30 28 27 27 25 24 23 22 22 21 20 19 19 19 19 20 21
14 12 11 11 10 10 10 9 9 10 10 12 15 18 20 21 21 23 25 24 24 24 26 28 29 28 26 25 24 25 27 30 35 41 44 41 36 32 33 33 32 29 28 31 33 32 31 29 29 28 27 25 25 24 23 22 21 20 20 20 21 22 23
10 9 9 9 8 9 8 7 7 9 11 14 18 20 21 21 23 25 24 22 22 24 26 27 26 24 22 22 24 26 28 31 34 33 30 30 30 30 32 32 30 30 32 33 32 31 30 29 29 29 28 26 25 24 23 22 21 21 20 21 23 23 24
8 9 8 7 8 8 7 7 7 9 14 19 21 20 20 21 24 24 22 21 23 24 25 25 24 22 22 23 25 28 29 29 24 20 21 27 30 31 33 32 31 31 30 28 27 28 29 30 30 30 29 27 25 25 25 24 22 22 22 23 23 22 23
8 9 9 9 9 9 10 12 13 15 18 20 20 20 20 21 21 20 20 20 22 23 24 23 22 22 22 25 27 29 30 28 25 24 28 34 38 39 39 36 33 30 26 23 23 26 28 29 31 31 29 27 26 26 26 26 24 24 23 21 19 19 22
8 8 8 8 9 10 14 16 18 18 18 17 17 19 19 18 18 18 17 18 19 21 22 22 23 24 25 27 29 31 31 30 31 33 34 37 40 39 33 28 25 23 22 22 24 26 28 29 30 30 29 28 27 27 27 27 25 21 18 16 16 19 21
6 6 5 6 6 6 9 12 13 13 13 13 13 15 15 15 16 17 17 18 20 21 23 23 24 24 26 27 29 30 31 31 33 35 36 38 36 29 23 20 20 22 23 24 26 27 26 25 24 25 26 26 26 26 25 24 21 18 17 16 16 19 21
7 7 7 7 6 6 7 10 11 10 11 11 11 13 16 17 18 19 19 20 20 21 21 19 18 20 23 25 26 28 29 29 29 30 31 32 29 24 22 23 25 26 25 25 24 21 19 18 18 20 22 23 23 23 22 21 20 19 20 19 17 18 18
8 7 8 9 8 9 11 11 9 8 6 6 8 11 14 15 15 14 13 14 15 15 14 12 12 16 20 22 23 24 25 25 25 24 21 18 17 21 25 29 30 28 24 20 16 12 12 14 14 14 16 17 17 16 15 16 17 18 21 20 16 15 15
10 10 11 12 12 12 12 11 9 8 4 1 3 5 9 11 10 8 9 11 12 11 10 10 11 14 18 20 21 21 21 22 23 21 17 13 16 23 29 30 26 21 17 13 11 11 12 15 15 15 16 16 16 16 16 16 19 24 23 18 13 13 15
12 14 15 16 16 15 13 11 11 10 8 5 3 5 9 11 11 11 12 13 12 11 11 12 13 16 19 21 22 22 21 21 21 19 16 16 22 26 24 20 15 13 13 14 16 16 15 18 20 19 18 18 19 20 20 19 22 25 20 13 11 13 13
10 11 12 13 15 13 12 11 10 11 10 8 6 6 9 11 13 14 14 15 14 13 13 14 16 20 22 24 25 24 23 23 21 18 17 17 19 17 13 11 11 13 16 17 17 17 19 21 20 18 18 19 19 19 19 18 19 19 14 10 10 11 11
10 9 9 12 15 14 13 11 10 11 12 9 7 7 8 11 15 16 16 16 16 16 17 18 21 24 26 27 27 27 26 24 22 19 17 15 14 12 12 13 14 16 19 17 14 16 20 20 18 18 20 20 20 21 21 18 15 13 11 9 10 11 12
9 10 11 13 15 15 14 12 11 12 13 11 9 7 8 11 16 18 18 18 18 19 20 22 24 26 27 28 29 29 27 25 23 19 16 14 15 17 18 18 18 19 20 17 15 17 20 19 20 21 21 20 20 22 22 18 14 12 10 10 11 12 13
9 11 13 13 13 12 11 11 11 12 12 11 8 8 9 10 13 16 19 20 20 21 23 25 26 27 28 29 29 29 27 24 22 18 13 12 16 18 18 18 17 16 16 16 16 18 20 21 20 19 19 19 20 20 19 17 14 12 11 12 13 13 13
6 6 9 9 7 7 9 11 11 11 11 10 7 8 9 9 10 14 18 21 22 23 25 26 27 27 27 27 28 27 26 24 22 17 12 10 12 13 12 11 9 9 12 14 14 17 20 21 19 18 18 19 19 18 17 15 12 12 13 14 14 13 13
5 6 6 5 6 9 12 12 11 12 12 10 9 9 10 11 13 16 20 22 23 25 26 26 26 26 25 25 24 24 24 24 21 17 13 9 7 8 9 9 8 10 13 14 14 18 22 22 20 20 21 21 20 18 16 13 13 13 14 14 14 14 13
6 7 8 7 2 6 13 15 15 15 15 14 12 13 13 15 18 21 23 24 25 26 26 25 25 24 24 23 23 23 24 23 20 17 14 12 12 14 14 12 12 15 17 16 15 19 22 22 22 24 24 22 19 16 14 14 13 12 11 12 13 13 13
6 7 8 8 6 4 8 12 13 14 15 15 15 16 18 20 23 25 26 26 27 27 27 26 24 23 22 23 23 24 24 22 19 18 18 18 20 21 19 16 15 16 17 17 18 20 22 22 23 23 22 19 16 13 13 12 10 9 9 10 12 13 12
6 7 7 6 5 7 6 7 9 10 11 15 18 20 21 23 25 26 27 28 28 28 29 29 27 24 24 26 27 26 26 25 24 23 23 22 22 21 19 17 15 15 16 17 18 19 19 19 18 17 16 15 13 12 11 10 9 9 8 8 9 11 11
5 4 5 5 4 6 6 7 9 10 13 15 18 20 22 24 25 26 28 29 30 31 32 33 31 28 28 28 28 27 26 26 26 25 24 23 22 20 19 18 15 12 12 13 14 14 14 14 14 14 13 12 10 10 9 9 9 8 6 6 8 10 10

ECMWFFLT1_925_spd_009.txt.gz
Wind_Speed
16 17 17 14 14 16 15 16 20 22 23 24 25 26 27 26 26 27 29 34 37 37 37 37 37 36 34 29 23 21 22 20 24 31 33 31 31 29 27 28 28 28 28 27 26 26 24 22 20 20 20 20 18 15 12 13 14 12 12 12 10 9 9
17 17 17 16 15 16 16 18 21 23 23 24 25 26 26 26 27 29 31 35 39 39 38 37 37 38 37 33 25 22 23 21 24 32 33 32 32 29 29 29 29 29 29 28 27 25 24 21 21 21 21 21 19 16 14 13 13 12 12 11 10 10 9
16 16 17 17 17 17 17 18 21 23 23 24 25 26 27 28 31 35 35 34 37 37 36 37 38 38 37 34 28 25 25 25 30 34 34 33 33 30 30 30 30 30 29 28 27 25 23 22 22 22 22 22 21 17 15 14 13 12 12 11 10 10 10
16 17 18 18 18 17 16 17 21 24 26 26 28 29 30 35 39 40 37 34 33 33 34 37 37 37 38 37 32 26 27 31 36 36 34 34 33 31 31 31 31 30 29 28 27 25 24 23 23 23 22 22 21 19 16 15 14 13 13 12 11 10 10
16 16 16 16 16 15 15 17 20 24 26 28 29 29 31 36 37 34 33 33 32 32 36 36 32 33 36 34 30 29 33 38 38 36 35 34 34 32 32 32 32 31 30 28 27 26 25 25 25 24 23 23 22 19 18 16 15 15 15 14 12 11 11
14 14 14 14 15 16 17 19 22 26 28 28 29 29 30 31 31 30 31 31 31 30 32 32 32 36 37 33 33 36 39 39 38 37 36 34 34 33 32 32 31 30 29 27 26 27 27 26 26 25 24 23 22 20 19 17 16 16 16 16 14 13 11
13 13 14 15 16 17 18 18 22 27 28 28 28 28 29 28 28 30 29 29 32 31 29 31 33 36 37 36 38 39 39 39 39 38 36 35 35 34 33 32 29 28 27 27 27 27 27 28 27 25 24 24 23 21 19 18 17 17 17 17 16 15 14
13 13 14 16 16 17 17 17 20 25 26 25 25 24 26 27 26 28 28 28 30 30 30 30 29 32 37 37 37 39 39 39 39 38 37 36 35 33 33 31 28 27 28 27 28 28 28 28 27 25 25 24 23 22 20 19 18 18 17 18 17 15 14
13 13 14 15 15 15 15 15 18 22 23 24 24 24 26 26 26 28 28 28 28 28 30 29 27 31 37 37 37 39 39 38 38 37 34 33 32 33 34 31 29 29 29 29 29 28 28 27 26 25 25 25 23 23 22 20 19 18 18 17 17 15 14
12 12 12 12 13 12 12 13 16 16 18 20 21 22 24 25 26 26 27 27 27 27 27 27 25 27 33 37 37 36 38 37 34 30 27 29 31 34 34 32 30 29 29 29 29 28 28 26 25 25 25 25 24 23 22 20 19 19 18 17 17 16 15
10 10 10 11 12 12 13 14 14 13 14 17 19 20 22 24 25 25 25 25 25 24 24 26 25 24 29 33 31 32 35 31 25 25 28 32 36 36 35 32 30 30 30 29 28 27 27 25 25 26 26 25 25 24 22 20 19 19 18 18 17 17 16
9 9 10 12 13 12 13 13 12 12 13 16 20 22 22 24 25 24 24 24 24 24 23 25 25 24 26 28 27 28 26 22 24 30 36 38 38 37 36 34 31 30 30 29 27 27 26 25 26 27 27 27 26 24 21 20 20 19 19 18 18 18 18
8 8 9 11 11 11 11 11 13 14 14 17 21 22 22 24 25 24 23 23 24 23 22 24 25 24 24 25 24 21 21 26 33 40 42 42 41 40 39 37 34 32 31 30 29 29 26 24 26 28 27 27 26 23 21 20 20 20 19 18 19 19 19
8 9 9 10 11 12 13 13 13 14 14 17 20 21 22 23 23 22 22 22 23 23 23 23 23 22 22 21 18 18 25 34 41 44 46 45 42 40 40 40 37 34 33 32 31 31 28 25 26 28 27 27 25 23 22 22 22 21 20 20 20 21 21
11 12 12 13 14 14 14 13 13 14 14 16 19 20 20 20 20 20 20 21 22 23 23 21 20 20 19 17 17 22 30 36 39 43 45 42 38 38 39 39 37 34 34 34 33 31 29 25 24 27 29 27 25 23 23 24 24 23 22 22 23 23 24
12 13 14 15 15 14 13 13 13 13 13 14 17 20 20 20 20 20 21 21 21 21 21 18 17 19 18 17 21 27 31 33 36 39 40 37 37 36 32 30 34 36 36 36 34 33 30 25 25 28 29 28 25 23 24 25 26 25 23 23 23 23 24
13 14 14 15 14 13 12 11 12 13 13 15 18 20 20 20 19 20 20 20 19 19 19 18 18 20 20 19 22 29 31 31 34 39 40 35 33 35 35 33 36 39 39 38 36 34 30 26 26 27 27 27 26 25 25 26 27 25 23 23 22 22 22
13 14 15 14 13 12 13 13 14 14 15 16 19 20 19 17 16 16 16 17 18 19 20 20 20 21 21 19 22 27 30 33 35 35 30 21 20 32 44 47 44 42 39 38 37 34 30 27 25 23 23 24 24 26 27 27 26 25 24 24 23 22 22
13 14 14 13 13 14 15 15 14 14 15 16 18 18 17 16 15 17 19 20 21 20 19 19 20 20 20 19 22 27 31 33 31 25 20 19 23 35 46 49 50 47 40 36 33 30 28 24 19 16 18 19 22 27 28 27 26 25 25 25 24 23 23
9 7 7 9 12 14 13 11 11 12 14 15 15 16 16 18 20 21 21 21 19 19 18 18 18 18 19 20 24 28 30 29 27 26 27 30 34 38 40 43 46 42 33 28 25 24 23 19 14 13 17 18 23 28 28 28 29 27 27 28 25 23 23
7 4 4 7 10 11 10 10 10 11 13 15 16 17 18 21 21 19 18 18 18 19 18 17 17 18 19 21 22 26 29 29 29 31 34 34 34 36 39 42 42 33 23 20 21 21 19 18 17 18 20 21 26 29 28 31 33 30 29 30 27 26 25
8 7 7 7 8 7 8 10 12 13 15 16 18 19 19 19 18 16 16 16 17 17 17 17 17 18 19 19 21 25 29 30 30 31 33 33 34 36 38 40 36 28 21 20 22 21 18 20 23 25 26 27 29 29 29 32 33 30 31 32 30 27 25
8 9 9 10 10 10 10 12 14 16 17 17 16 16 15 15 15 15 14 14 15 16 16 16 16 18 20 19 20 25 28 28 29 30 30 31 31 33 36 36 33 28 26 25 25 25 25 27 28 27 25 25 26 27 29 31 31 30 32 32 29 25 22
3 5 6 7 9 11 11 10 11 12 12 11 10 9 10 12 14 14 14 14 14 14 15 15 16 17 20 19 19 24 26 27 28 29 27 27 27 27 28 28 27 28 29 28 27 29 32 34 31 26 22 21 23 25 27 28 28 30 30 27 23 20 19
6 7 7 7 7 10 10 9 10 11 10 10 8 7 9 12 13 13 12 11 12 13 13 13 13 15 17 17 18 21 23 24 26 25 22 21 21 19 19 20 23 26 27 26 26 28 30 29 26 24 22 21 22 24 25 26 28 29 27 24 22 20 18
10 10 10 11 12 13 13 13 14 13 12 11 9 9 11 12 12 11 10 9 10 10 10 10 12 14 16 16 17 19 20 22 22 19 18 19 19 19 22 26 29 29 28 26 25 23 21 20 18 19 21 21 22 23 23 23 23 23 21 21 21 19 17
15 15 14 14 14 16 16 16 16 15 13 11 12 12 12 13 12 10 9 9 8 7 8 11 14 15 16 15 16 17 18 19 18 16 17 19 18 21 27 29 31 32 28 24 21 19 17 16 15 16 18 18 19 20 20 20 19 19 20 21 21 18 16
16 16 16 15 14 14 15 15 15 16 14 12 13 13 13 14 13 11 9 9 8 9 10 12 13 13 14 15 16 15 15 15 15 16 18 19 21 26 31 30 29 30 27 22 18 17 15 14 14 15 16 17 18 18 18 20 20 20 23 25 22 19 15
14 14 14 15 15 16 17 16 15 15 14 12 13 13 12 14 14 11 10 10 10 12 13 13 13 14 15 15 15 14 14 14 15 18 21 23 25 29 29 25 23 24 23 20 16 14 13 14 16 17 18 19 18 16 16 19 20 21 24 23 19 14 11
11 11 12 14 16 20 22 19 15 15 14 13 14 13 10 12 13 11 9 10 13 15 15 15 16 15 15 14 13 13 14 15 17 21 24 25 27 26 23 20 19 19 18 17 15 14 15 17 18 19 18 18 17 14 15 20 22 21 20 18 13 9 8
11 11 12 13 14 17 20 19 17 16 13 12 14 13 11 11 13 12 11 12 15 16 16 17 17 15 14 13 12 13 14 15 18 23 25 25 25 23 21 20 20 19 17 16 16 17 17 17 19 18 16 16 15 14 17 20 18 16 15 13 10 9 8
10 11 12 11 10 12 16 18 17 15 14 13 13 12 11 11 11 13 14 16 17 17 18 18 17 14 12 13 14 15 15 15 17 20 21 21 21 20 19 20 20 19 17 16 16 17 18 19 20 19 17 15 14 14 16 16 12 10 11 11 11 10 9
10 10 11 10 8 7 10 13 12 11 11 12 12 12 12 12 12 13 16 18 19 19 19 19 17 14 14 16 17 16 16 16 16 16 17 17 16 16 16 16 16 16 17 16 16 19 21 20 18 16 14 13 12 12 13 12 10 10 12 12 12 11 10
8 9 10 10 9 7 7 8 8 8 8 9 12 13 12 12 14 16 17 18 18 19 20 19 15 14 16 17 17 15 16 16 16 15 14 14 14 13 13 13 14 16 18 18 18 20 21 16 12 11 11 11 11 10 10 9 10 12 14 14 13 12 11
8 8 8 8 7 6 5 4 4 4 4 5 9 12 10 9 12 15 17 18 18 20 20 18 15 14 16 16 15 14 14 15 14 13 13 14 13 13 13 13 13 14 16 17 17 17 15 11 8 8 9 9 9 9 9 9 11 14 15 13 12 11 11
7 6 6 5 3 3 4 3 3 4 3 3 6 8 7 7 10 14 15 16 19 20 19 17 15 13 13 14 13 13 14 15 15 15 14 13 13 14 14 14 14 14 13 14 15 15 13 12 11 9 8 8 8 10 11 11 13 14 13 10 10 10 10
6 5 5 3 2 2 2 3 3 2 2 4 5 5 4 6 10 12 14 16 19 19 18 18 15 12 11 12 12 13 15 14 15 16 14 12 14 15 14 12 11 11 12 13 13 13 13 13 12 11 10 9 8 10 13 14 12 11 9 7 7 7 8
8 6 6 4 3 2 1 0 2 3 5 6 7 7 7 8 11 13 14 17 19 18 18 20 18 13 11 11 10 12 14 13 13 15 14 14 16 16 13 11 10 8 8 9 9 9 9 8 8 9 10 9 7 9 13 14 11 8 6 5 4 4 5

ECMWFFLT1_925_spd_012.txt.gz
Wind_Speed
17 19 19 17 17 18 18 18 20 23 25 25 26 27 28 27 27 26 24 25 26 26 26 26 25 25 26 26 25 25 23 22 24 22 21 22 20 20 20 18 18 17 16 15 14 15 15 14 14 15 14 13 13 12 11 10 10 10 9 10 9 9 9
16 16 18 18 18 19 19 20 22 24 25 25 26 27 28 27 27 27 25 26 27 26 26 26 26 26 26 25 25 25 24 24 25 23 21 21 20 20 20 19 18 17 16 15 14 14 14 14 14 14 14 13 13 12 12 11 11 11 11 11 11 10 10
15 16 17 18 18 18 19 20 23 26 26 26 27 27 28 29 29 29 28 26 27 27 26 26 27 27 26 26 25 26 26 25 26 25 23 21 20 20 20 19 18 17 16 15 13 13 13 13 14 14 13 13 13 13 13 12 12 12 12 11 11 11 10
16 17 17 18 18 19 20 20 22 26 28 28 29 29 29 30 30 30 29 28 27 27 27 28 28 27 27 27 26 26 26 26 27 25 22 21 20 20 20 18 17 17 16 14 13 13 13 13 14 14 14 13 13 13 14 13 13 13 12 12 11 11 10
16 16 16 17 18 17 18 19 21 25 28 29 30 29 30 31 29 29 29 29 28 29 29 29 27 26 26 26 26 26 26 28 28 23 21 23 21 20 20 18 17 16 15 14 14 14 14 14 14 14 15 15 14 14 14 14 13 13 13 12 11 10 10
14 15 15 15 16 17 18 19 22 27 29 29 30 29 29 29 29 29 29 28 29 28 28 29 27 26 26 26 26 25 25 28 27 23 23 24 22 22 22 19 18 17 16 16 16 16 16 16 15 15 16 16 16 15 15 15 14 13 13 13 12 10 10
12 14 15 15 16 17 19 20 22 27 29 29 29 28 28 29 29 29 29 28 29 29 28 29 28 27 26 26 26 25 25 26 25 24 25 24 23 23 21 20 20 20 19 20 20 18 19 20 19 18 18 17 16 16 15 15 15 14 13 13 13 11 10
12 13 15 16 17 17 18 17 19 24 26 27 28 28 28 28 28 29 29 28 29 29 29 29 29 28 26 26 26 26 25 25 25 26 26 24 25 24 21 21 24 24 22 22 21 20 20 20 20 20 20 18 16 15 15 16 15 14 13 13 13 12 11
12 13 15 16 16 16 15 15 17 20 24 26 27 27 28 28 27 28 29 29 28 28 29 30 29 28 27 25 25 25 25 25 25 26 26 27 28 25 22 22 25 26 25 22 19 19 21 20 19 20 20 19 18 18 17 16 15 15 14 13 13 12 11
10 12 13 14 15 13 13 14 15 17 19 21 24 25 26 26 26 27 27 28 28 28 29 29 28 27 26 26 25 25 25 26 27 27 28 29 28 25 23 22 21 22 24 21 15 17 22 20 19 21 20 19 21 21 19 17 16 15 14 14 13 12 12
8 10 11 13 13 13 13 14 14 14 15 18 22 23 24 24 25 25 26 27 28 27 27 28 27 26 26 25 25 26 27 29 29 28 30 30 27 24 21 16 13 16 22 23 19 20 24 23 24 25 22 22 23 21 19 19 17 16 15 14 12 12 12
7 8 10 12 12 13 13 13 14 15 15 17 21 22 23 23 24 24 24 25 26 26 26 26 26 26 25 25 25 27 29 30 29 28 30 28 20 15 14 14 15 19 24 28 28 29 28 28 31 29 26 27 26 21 19 19 18 18 16 14 12 12 13
6 7 9 10 11 12 13 13 15 16 16 18 21 22 22 23 24 24 23 24 24 24 23 23 24 24 24 24 24 26 28 28 27 26 24 21 18 19 21 22 24 25 28 32 34 35 33 33 35 33 30 30 27 24 23 21 20 19 17 15 14 14 14
8 8 9 10 12 14 14 14 15 16 16 17 20 22 22 22 23 23 22 23 23 23 22 21 21 22 23 22 22 23 24 24 21 19 18 19 24 28 25 26 30 32 36 40 41 42 39 36 37 36 33 30 28 27 27 24 23 21 19 17 17 17 17
10 10 11 13 14 15 15 15 15 16 16 17 19 22 21 21 22 22 21 21 21 21 21 20 20 21 22 21 21 20 20 19 17 18 20 23 27 27 24 31 38 41 44 46 46 43 37 32 34 35 33 31 30 30 29 27 25 22 19 18 17 17 18
11 12 13 14 15 15 15 15 15 15 16 16 18 21 21 21 21 21 21 21 20 21 21 20 20 20 21 20 19 17 17 18 19 21 23 27 29 28 32 40 43 44 45 45 45 42 35 31 34 35 34 34 33 31 30 29 27 23 20 19 16 16 17
11 12 13 14 14 14 14 14 15 16 16 17 19 21 21 21 21 22 22 21 20 20 20 20 20 19 20 20 18 17 18 18 20 21 22 27 32 34 38 42 43 42 41 38 38 38 33 30 31 33 33 34 33 29 29 30 27 24 23 20 15 14 16
12 12 12 13 14 14 15 16 16 18 18 18 20 22 21 21 21 21 21 21 20 20 20 20 19 18 19 19 17 18 19 19 20 23 24 27 34 38 39 41 40 37 34 30 29 30 27 25 28 32 32 31 29 26 28 30 27 25 24 20 16 15 17
12 12 12 13 13 14 16 16 16 17 17 18 20 22 21 21 20 19 19 19 18 18 19 19 19 18 18 18 17 18 20 19 21 24 26 29 35 38 38 38 37 35 30 25 23 25 26 25 26 30 30 26 24 26 29 29 26 26 24 20 17 18 17
10 9 10 11 13 14 13 13 13 14 17 19 21 22 21 20 18 16 17 17 17 17 17 17 18 17 16 17 18 17 19 20 22 25 27 28 32 36 35 34 34 32 28 22 21 24 26 25 25 26 27 27 27 28 28 26 25 26 23 18 18 19 17
8 8 8 9 11 12 12 12 12 12 15 17 18 19 19 19 17 16 16 17 17 17 17 16 17 16 16 17 17 17 19 20 21 24 25 25 28 31 33 34 33 30 25 22 22 23 24 25 25 24 26 30 29 27 25 24 24 24 20 19 20 17 16
9 10 9 8 8 9 11 12 13 13 15 16 16 17 18 18 18 17 17 17 17 17 17 16 16 16 15 16 16 17 20 20 20 21 22 23 25 26 28 31 31 27 24 23 23 23 22 23 24 24 26 28 26 24 23 22 24 23 19 20 20 16 17
8 9 10 9 9 11 13 14 14 16 17 17 16 16 17 17 18 17 17 17 17 16 16 16 15 15 15 15 16 17 19 19 19 19 20 22 23 24 25 27 26 24 24 25 25 25 24 24 24 26 28 24 20 22 22 21 24 25 20 18 18 16 18
8 8 9 10 10 12 16 18 19 20 20 19 18 17 16 17 18 17 16 16 16 15 15 14 14 14 14 15 16 16 16 17 18 18 19 20 22 23 24 24 24 23 22 21 20 21 23 23 21 23 25 21 17 20 19 18 23 25 20 17 16 15 17
8 7 8 10 11 12 15 18 19 21 21 20 18 17 17 17 18 16 14 14 14 13 13 12 12 13 13 14 15 14 14 15 15 16 17 18 20 21 20 20 22 22 21 19 18 18 21 23 21 20 19 16 15 18 18 17 20 22 20 17 14 14 17
8 7 9 11 13 15 16 17 17 18 20 19 17 16 16 17 16 15 13 12 12 11 11 11 11 11 12 12 13 13 12 12 13 14 14 15 15 16 16 17 18 19 19 18 18 19 21 22 20 19 18 15 15 16 16 16 16 18 17 14 13 16 20
9 10 11 13 15 18 18 18 17 18 19 19 18 17 17 16 16 15 13 12 12 11 11 11 11 11 12 12 12 12 11 11 11 12 11 12 13 14 14 14 15 16 19 19 17 18 20 19 17 16 17 16 16 14 12 12 12 12 12 12 14 18 20
13 13 14 16 16 17 18 17 18 19 20 20 19 17 17 17 17 15 14 13 12 11 11 11 11 10 10 11 11 10 10 10 10 10 11 12 14 15 14 14 15 17 19 20 18 17 19 19 17 17 18 18 17 14 11 11 12 12 13 14 16 18 18
16 16 17 17 17 17 17 17 17 19 20 20 19 17 17 18 17 15 14 14 13 12 12 11 10 10 10 10 11 10 10 10 11 11 10 10 12 14 14 14 15 17 18 19 19 19 19 19 19 18 18 17 15 13 12 13 14 14 15 16 17 18 18
17 17 17 18 19 20 19 17 17 18 18 18 17 16 16 18 17 15 13 13 14 15 15 13 12 12 11 11 12 11 11 11 12 12 10 10 11 12 13 14 15 16 17 17 17 18 18 18 18 17 16 14 12 11 12 14 14 14 15 15 16 18 18
16 17 17 18 19 21 21 20 19 19 17 16 15 15 16 18 19 17 14 13 15 16 16 16 15 14 13 13 13 13 12 13 13 13 12 11 12 13 13 14 15 15 16 16 17 17 16 15 15 15 13 11 9 9 10 13 13 12 14 15 15 16 16
14 15 16 16 17 19 21 21 20 19 17 16 15 15 14 15 17 18 17 17 16 15 15 16 15 14 14 14 14 14 14 14 15 15 13 12 12 13 14 14 14 14 15 16 17 15 14 13 13 13 12 9 8 8 8 11 14 13 14 16 17 16 14
12 12 13 13 13 15 18 17 16 16 16 14 13 12 11 10 11 13 16 17 15 14 15 16 16 15 15 14 14 14 15 15 15 14 14 14 14 13 14 14 13 14 15 16 16 15 13 12 11 11 11 10 10 9 9 11 14 15 15 15 15 15 14
11 11 12 13 12 13 15 15 14 14 14 12 10 9 9 9 9 11 12 13 13 14 15 16 16 15 15 15 15 15 14 14 14 14 14 14 13 12 13 14 14 15 15 15 15 14 13 13 12 11 11 10 9 10 12 13 14 15 14 13 12 13 13
10 11 11 12 12 13 13 13 12 12 12 11 10 9 9 9 10 11 11 11 12 13 14 15 15 15 15 15 15 14 14 14 13 13 14 13 11 11 12 11 10 11 11 12 12 11 10 10 10 8 8 8 9 11 13 14 14 14 15 15 15 14 13
9 10 10 10 10 11 12 11 11 11 11 10 9 9 9 9 9 10 10 11 12 12 13 14 14 14 15 14 13 14 14 13 13 13 13 13 11 12 12 9 8 8 8 9 11 10 7 6 8 8 7 7 9 13 13 11 12 15 17 18 18 16 14
9 9 9 8 8 9 9 9 8 9 9 8 7 7 7 7 8 9 9 10 11 12 13 14 13 13 13 12 12 13 13 12 13 13 13 12 12 12 12 10 9 8 7 7 8 8 8 7 9 10 8 6 7 12 11 7 9 14 17 16 15 13 11
11 10 8 8 8 7 7 7 6 6 6 5 4 4 4 5 7 8 9 11 12 12 13 13 11 11 11 11 13 14 13 12 13 13 13 12 13 13 12 10 9 8 7 6 6 7 7 7 7 9 10 9 8 9 10 9 11 13 14 13 11 10 9

ECMWFFLT1_925_spd_015.txt.gz
Wind_Speed
13 15 17 17 19 19 20 21 21 23 27 29 30 32 33 31 31 29 28 29 29 29 29 28 27 26 26 25 24 23 22 21 20 19 18 17 17 17 17 16 15 15 14 14 13 13 13 12 11 11 11 11 10 10 8 8 8 7 7 8 8 7 7
13 14 15 17 19 20 21 22 22 25 28 30 31 32 33 32 32 31 29 29 30 29 29 28 28 27 26 25 25 24 23 23 21 20 19 18 18 18 18 18 17 17 16 15 13 13 12 12 12 12 11 11 10 10 9 9 9 9 8 8 8 8 8
14 15 17 19 20 20 21 21 22 26 29 30 32 32 33 33 33 33 31 30 31 30 29 29 28 27 26 25 25 24 24 23 23 22 21 19 19 19 19 18 18 18 17 15 14 12 12 12 12 12 12 12 11 11 11 11 11 10 9 9 9 10 10
14 16 17 20 21 19 19 21 22 26 30 32 33 33 34 34 34 34 33 31 32 31 30 30 29 28 27 26 25 25 25 25 24 24 23 21 19 18 18 18 18 18 16 15 13 12 12 12 12 12 13 13 12 13 13 13 13 12 12 11 10 11 11
13 14 15 18 19 18 18 20 21 26 30 32 33 33 33 34 34 33 33 32 32 31 31 31 29 28 27 26 25 24 25 26 25 25 24 22 20 19 18 18 18 18 16 15 13 12 13 14 13 13 14 14 14 14 15 15 14 14 13 13 12 11 12
12 14 15 16 16 18 19 21 24 28 31 32 33 33 33 34 34 33 33 32 31 30 30 30 29 28 27 27 25 24 25 26 26 26 25 23 21 20 19 18 17 17 17 16 15 14 15 16 15 16 16 17 17 16 17 17 17 16 15 14 13 12 13
13 13 15 15 15 18 20 21 24 29 32 32 33 33 33 34 34 33 33 33 33 31 31 31 31 29 28 27 26 25 27 27 28 27 25 23 22 20 19 17 17 17 17 18 18 18 18 18 19 21 22 21 21 20 20 21 21 19 18 17 16 16 15
15 14 15 16 16 16 18 19 21 26 30 31 31 33 34 34 33 33 33 32 33 33 32 32 32 31 29 27 27 27 28 28 28 27 25 24 22 21 19 18 18 19 19 20 21 20 22 23 25 26 27 25 24 23 24 25 24 22 21 21 21 20 18
13 16 15 16 15 15 16 17 18 21 25 28 29 31 33 34 33 33 34 33 32 33 33 32 31 31 29 28 28 29 29 28 27 26 25 24 22 21 20 19 20 22 22 21 22 23 27 29 30 30 30 29 27 27 26 26 25 23 22 22 22 21 19
8 13 14 14 14 14 14 16 16 17 18 21 24 28 31 33 32 32 33 32 32 33 34 33 31 30 29 29 29 30 29 28 27 26 26 24 23 23 23 23 23 24 24 24 26 30 34 34 34 34 33 31 29 28 26 24 23 22 22 22 21 21 20
6 8 10 13 13 12 15 15 14 14 13 15 21 26 29 30 32 32 32 32 32 31 32 32 31 30 30 30 30 30 29 28 27 27 26 25 25 27 27 26 25 27 29 31 32 36 39 38 35 34 33 31 28 28 26 24 23 22 21 21 20 20 20
7 7 9 12 12 12 13 12 13 13 12 15 22 26 26 29 31 32 31 32 32 30 30 31 30 30 30 30 30 30 29 29 28 28 28 29 30 30 30 29 28 30 34 35 34 34 37 38 34 32 33 32 29 28 27 24 23 23 22 21 21 20 19
8 8 9 11 12 12 12 11 13 15 14 16 23 26 25 27 30 31 31 31 31 30 29 29 29 30 30 30 28 28 29 30 29 29 31 34 34 32 30 30 31 32 35 36 33 31 33 34 33 33 34 32 30 28 27 25 24 24 23 22 22 21 20
11 11 12 13 13 13 14 12 13 15 16 18 22 25 25 26 28 29 30 31 31 30 28 27 28 29 29 28 27 26 28 28 29 30 32 33 33 33 32 32 32 34 36 38 35 32 31 31 32 34 33 30 29 28 27 27 25 25 25 24 22 22 21
13 13 13 14 14 14 14 14 14 15 16 18 20 23 24 25 25 26 27 28 29 30 29 27 27 28 28 27 26 25 26 26 26 28 29 28 28 30 32 33 34 36 40 41 37 32 29 28 29 31 30 28 28 28 27 27 26 26 26 25 23 22 22
14 13 12 12 13 15 15 15 16 16 17 17 18 22 23 23 24 25 25 26 27 28 28 26 26 26 27 26 25 24 25 25 25 27 27 27 27 27 29 30 30 31 33 32 29 26 24 24 25 27 28 28 29 29 28 27 27 27 27 28 26 22 21
13 11 11 11 12 14 15 16 16 17 18 19 19 22 24 23 24 25 26 26 26 27 27 26 25 25 26 25 24 24 25 25 26 27 27 28 28 29 31 30 28 28 26 21 20 21 20 20 23 24 25 26 27 28 28 26 27 29 30 31 28 23 22
14 12 11 10 11 14 16 17 18 20 21 20 22 24 24 23 24 24 25 25 25 26 27 26 25 25 25 25 24 25 25 24 25 26 25 25 27 29 31 30 26 24 22 18 17 19 19 20 21 22 23 25 26 27 27 26 28 31 33 34 29 23 22
15 16 13 9 8 12 16 17 18 20 20 20 23 26 26 25 24 23 23 24 24 25 26 26 25 25 25 25 24 24 23 23 24 24 22 21 23 24 25 26 24 21 19 18 17 17 18 19 21 22 24 26 26 25 26 26 29 33 35 34 29 23 20
16 18 14 6 5 10 13 15 15 17 20 22 24 25 25 24 23 22 22 22 22 23 24 25 25 25 24 24 24 24 23 22 23 22 21 21 22 22 22 23 23 22 19 17 16 17 19 20 22 24 27 27 24 22 23 25 29 34 36 35 31 25 20
16 18 13 7 7 12 14 14 14 16 19 23 24 24 24 24 23 22 22 22 22 22 22 23 23 23 23 23 24 24 24 23 22 21 22 22 20 21 22 22 22 21 20 18 18 19 20 22 23 24 25 24 22 20 20 22 27 32 34 32 28 23 18
17 16 12 10 13 14 15 16 16 17 19 22 24 24 25 24 24 24 23 23 22 21 21 22 23 23 23 23 24 24 24 24 22 21 22 21 19 18 18 19 19 18 17 18 18 17 18 20 21 22 21 20 21 20 18 20 26 31 31 29 25 21 18
20 17 15 14 14 15 17 18 18 19 20 22 24 25 24 24 25 24 24 24 23 22 22 22 22 23 23 23 23 23 23 22 22 21 21 20 18 16 15 15 15 15 15 16 16 16 17 18 20 20 19 20 23 22 19 22 28 32 32 29 27 24 21
19 17 14 13 13 14 17 19 19 21 23 23 23 24 24 25 25 24 23 24 23 23 23 22 22 23 22 22 22 22 22 21 21 20 19 18 17 15 14 13 13 13 13 13 13 14 13 13 14 15 17 21 23 20 19 22 26 29 30 30 29 25 23
17 15 12 12 13 15 17 19 20 21 23 23 23 24 25 25 26 24 23 23 23 22 22 21 22 22 22 22 22 21 21 20 19 18 18 17 17 16 15 14 13 13 12 11 12 12 9 8 10 12 16 19 21 20 20 22 25 28 30 30 28 24 23
13 13 12 12 14 15 17 19 19 19 22 23 24 26 26 26 25 24 22 22 22 21 21 22 22 22 22 22 21 20 19 18 18 18 17 17 17 16 16 15 13 14 12 10 11 10 7 9 11 14 17 18 19 20 20 20 23 29 30 29 27 23 22
8 10 11 11 13 16 17 18 18 18 20 22 23 25 26 25 24 23 22 21 20 20 21 23 23 22 22 21 20 19 18 18 18 18 17 16 16 15 15 14 13 13 12 10 10 10 10 13 15 17 19 18 17 18 18 17 19 24 26 28 27 23 19
7 8 8 10 13 16 16 16 17 18 19 21 22 22 23 25 24 23 22 21 21 22 24 24 23 23 22 21 21 19 18 17 17 16 15 15 15 14 14 13 11 11 11 11 13 13 12 14 16 17 18 16 14 15 17 17 18 19 22 25 25 23 20
7 8 10 11 13 15 15 14 15 18 20 22 22 22 23 25 25 24 23 23 23 24 25 24 24 24 23 21 22 21 19 17 15 13 12 13 14 14 13 11 9 10 11 13 14 14 13 14 15 15 15 15 15 15 16 18 18 18 20 22 23 24 22
7 8 9 11 13 16 17 15 15 18 20 21 22 23 24 24 25 24 23 23 23 23 23 23 22 22 21 20 20 19 19 19 17 13 11 11 11 12 12 11 11 12 14 16 15 14 14 14 14 14 14 14 16 15 16 18 18 17 19 21 22 22 20
9 9 10 11 14 17 18 18 19 21 21 21 22 23 22 23 24 23 21 21 22 22 23 23 22 21 20 19 18 17 18 18 17 14 12 12 11 12 12 13 14 14 15 16 15 13 14 14 13 14 14 13 13 13 14 15 14 13 16 19 18 17 16
10 11 11 12 14 17 20 21 21 21 21 21 21 21 20 21 22 22 20 20 21 22 22 23 22 22 22 21 20 19 18 18 16 14 14 14 13 13 14 14 14 14 15 16 15 13 14 14 13 13 13 12 11 12 12 12 12 11 12 14 16 15 14
12 12 13 14 17 19 21 20 18 19 19 20 21 21 20 20 21 21 21 20 20 21 22 22 21 21 21 21 20 19 18 18 16 15 15 15 14 13 14 13 13 14 14 14 14 13 13 13 13 13 12 11 12 12 11 11 12 11 11 11 13 14 13
13 13 13 15 17 18 19 17 16 18 18 18 20 21 21 20 21 21 21 20 19 20 21 21 20 20 19 19 19 19 18 17 16 15 15 14 12 12 12 12 13 14 13 12 12 13 14 13 13 12 12 12 12 12 11 11 11 12 12 12 11 12 12
13 14 14 16 17 17 17 17 17 18 18 18 18 19 19 20 20 20 20 19 20 20 20 20 20 20 19 18 18 18 17 17 16 15 15 12 11 11 11 9 8 11 11 8 7 9 10 10 9 10 11 11 11 10 10 10 11 12 13 13 11 11 12
12 13 14 16 18 19 19 18 18 19 18 17 17 17 18 17 17 17 17 18 18 19 19 19 19 18 17 17 16 17 17 17 15 15 15 14 13 13 12 8 7 9 10 9 7 7 7 7 5 5 7 8 9 10 10 10 10 11 12 12 12 12 13
13 13 14 16 16 16 17 18 17 17 17 15 15 15 15 15 15 14 15 16 16 17 18 17 16 16 15 15 15 16 16 16 15 15 15 14 14 15 13 10 10 10 11 10 9 9 8 7 7 7 8 8 9 11 12 10 9 11 12 14 15 15 15
17 16 16 17 16 16 16 16 15 15 14 13 13 12 12 13 13 13 14 15 15 16 17 16 15 15 14 15 16 16 15 15 15 15 14 14 14 15 14 12 10 10 9 9 9 8 8 7 8 9 9 8 8 11 12 10 10 12 15 17 19 19 17

ECMWFFLT1_925_spd_021.txt.gz
Wind_Speed
16 15 14 12 13 13 14 17 17 19 25 29 32 35 36 36 36 36 35 38 39 38 39 39 38 38 37 37 38 37 36 35 34 33 32 32 31 30 31 31 31 31 31 31 29 30 32 30 29 29 26 26 25 23 22 21 19 18 16 14 15 18 18
16 15 13 12 12 12 13 15 16 19 25 28 30 34 35 36 36 36 36 38 39 39 39 40 39 38 37 37 37 37 37 36 35 34 33 33 32 31 32 33 33 32 32 31 29 30 32 31 30 30 27 26 26 25 23 23 21 19 18 16 17 19 19
15 14 13 13 13 13 13 13 15 20 24 27 29 33 35 36 37 37 37 37 39 39 39 39 39 38 37 36 36 36 37 36 35 35 34 34 33 32 32 34 34 33 33 33 32 31 32 31 29 29 29 27 27 26 24 24 23 21 20 19 19 20 19
16 15 15 15 15 14 13 13 15 19 24 29 32 34 36 37 37 38 38 38 39 39 39 40 39 38 37 37 37 37 37 36 36 37 36 35 35 33 32 34 34 33 34 34 33 33 32 32 30 29 30 30 28 27 26 25 24 23 23 22 21 21 20
19 17 15 15 15 14 13 14 15 19 25 29 32 34 36 37 38 38 37 38 39 40 40 40 39 38 38 38 37 36 37 37 37 37 37 35 35 34 33 34 35 35 35 34 34 34 33 32 31 30 31 32 30 29 29 27 26 25 26 25 24 23 23
17 17 15 15 15 14 14 16 17 21 27 29 32 34 35 36 37 37 36 36 38 38 39 39 39 38 37 37 37 35 36 37 37 38 38 36 36 36 35 36 37 36 36 35 34 34 34 33 32 31 32 33 32 31 31 30 29 28 29 28 26 25 25
16 16 16 16 15 15 16 16 18 23 28 30 30 32 34 36 37 37 36 36 37 38 38 39 39 39 38 37 36 35 36 37 38 38 38 37 36 36 37 37 37 37 36 36 35 34 34 34 34 33 32 33 33 33 33 33 32 31 31 30 28 26 26
19 18 18 18 17 17 16 15 16 21 26 27 28 31 35 37 37 37 37 37 37 38 38 39 40 40 38 36 36 36 36 37 38 39 38 37 37 37 38 38 38 37 36 36 36 35 35 35 35 35 33 33 34 34 35 34 34 34 33 32 30 29 28
19 19 19 18 18 16 14 14 15 18 22 25 27 30 34 35 36 37 37 37 37 38 39 40 40 39 38 37 37 37 37 37 39 39 38 38 37 38 39 39 38 38 37 37 36 35 36 36 36 36 35 34 34 35 36 37 36 36 35 34 32 31 31
16 16 16 16 16 14 12 12 12 14 16 20 23 28 32 33 34 35 36 37 38 38 40 40 39 38 38 38 37 37 37 38 39 39 39 38 39 39 39 39 39 39 38 37 37 36 37 37 36 37 37 36 36 35 36 37 38 37 36 35 35 34 33
16 17 15 15 14 12 11 11 12 12 12 15 20 25 29 31 33 34 35 36 36 37 39 39 38 37 38 38 37 37 38 39 39 39 39 39 40 40 40 39 38 39 39 38 38 38 37 37 36 37 38 39 39 38 37 37 38 37 36 36 36 35 35
17 17 14 14 12 10 11 12 12 13 11 12 19 23 26 29 32 33 34 35 36 36 37 37 37 37 37 38 38 38 40 40 40 40 41 41 41 40 40 39 38 38 39 39 39 38 38 37 37 37 38 39 39 39 39 38 38 38 37 37 36 36 35
14 15 13 15 14 12 13 14 14 14 12 14 19 23 26 29 31 32 34 35 35 36 36 36 36 36 36 38 39 39 40 41 41 41 42 42 42 41 40 40 39 39 39 39 39 38 37 38 38 38 38 38 38 38 38 37 37 37 37 36 36 36 36
15 15 14 15 15 15 15 14 14 14 13 14 19 23 24 27 31 33 34 35 36 36 36 36 36 36 36 37 39 40 41 43 42 42 42 43 42 41 40 40 40 39 38 38 38 38 37 36 36 36 36 36 36 35 35 35 35 36 36 35 34 35 36
17 17 16 16 15 14 14 13 13 13 13 14 16 20 22 25 29 31 33 35 37 37 37 37 37 37 37 37 39 41 43 43 42 41 41 42 41 41 40 40 40 39 37 37 38 37 35 33 32 33 33 33 33 32 33 33 34 35 35 34 34 35 36
13 14 14 14 13 12 13 14 14 14 14 14 14 18 21 23 27 31 33 35 37 37 37 38 38 38 37 38 40 41 42 42 40 40 40 41 41 42 41 40 39 37 36 36 37 36 33 31 30 31 32 31 31 31 32 33 35 36 36 36 36 36 37
13 14 13 12 12 12 12 13 13 13 13 14 16 20 23 25 29 32 33 34 36 37 38 38 39 39 39 39 40 41 41 40 39 39 40 40 40 40 40 39 37 36 34 33 34 33 32 31 30 30 31 31 31 32 33 34 36 36 36 37 37 37 36
13 15 15 14 14 13 14 14 14 14 14 15 17 22 26 27 29 30 32 34 37 38 38 38 39 40 40 40 40 40 40 39 39 39 39 40 39 38 38 37 35 33 32 31 32 32 32 32 31 30 30 31 32 33 34 35 36 36 37 37 38 38 36
12 13 15 16 16 15 15 13 13 14 15 15 18 25 30 31 30 31 35 37 38 38 37 37 39 41 41 40 41 42 41 40 40 39 39 39 39 37 36 35 33 32 31 30 30 31 32 32 30 28 28 30 31 32 34 35 35 37 37 37 38 39 36
10 10 12 15 16 15 14 13 12 13 15 18 24 29 33 34 34 36 38 37 36 38 38 37 37 39 41 41 41 42 42 41 40 40 39 39 38 35 34 34 32 31 30 28 28 29 30 30 28 26 26 28 29 31 33 35 36 37 36 35 37 39 36
8 8 9 12 14 15 14 14 13 11 13 20 27 29 30 32 34 34 35 35 36 37 39 38 36 38 40 41 41 42 42 41 40 39 38 37 36 35 34 33 32 30 28 27 27 28 28 28 26 24 24 26 28 30 32 33 34 34 33 33 35 37 35
8 7 7 10 12 14 14 14 14 15 19 24 27 27 28 31 33 31 31 34 35 36 38 37 34 36 39 40 40 41 42 41 39 38 36 35 35 34 33 32 31 29 28 27 25 25 25 26 25 25 25 25 26 26 26 26 27 28 29 30 32 34 34
7 7 7 8 11 14 16 19 21 24 26 27 26 27 29 31 32 31 30 32 33 33 35 35 32 34 38 40 40 40 41 41 38 36 35 35 34 33 33 33 32 30 27 26 24 24 23 23 23 24 24 23 22 19 18 18 20 23 25 27 30 34 33
7 7 6 6 8 13 17 22 26 28 28 27 26 29 31 31 31 30 28 29 31 31 31 31 32 34 37 40 40 40 40 40 38 37 36 36 35 34 33 33 32 30 28 26 24 22 22 21 20 20 20 21 21 19 18 17 18 20 22 26 30 34 33
6 5 4 1 2 8 17 24 27 28 27 25 26 30 31 31 31 30 27 28 31 30 28 29 32 36 38 40 40 39 39 39 39 38 38 37 35 35 34 33 31 29 27 24 22 20 19 19 18 18 18 19 20 20 19 19 19 19 21 26 31 33 32
5 8 8 5 4 4 18 25 22 20 21 23 28 33 34 33 31 27 27 29 29 28 28 30 34 37 38 39 38 38 39 39 39 39 38 37 35 34 33 31 29 27 24 22 20 18 17 16 17 17 17 17 18 19 18 18 19 20 22 27 31 33 32
1 5 7 6 6 1 14 22 20 20 24 28 32 34 35 34 30 27 28 28 27 28 31 33 35 36 36 37 37 38 39 39 39 39 37 36 35 33 31 29 28 27 25 22 21 19 18 17 16 16 16 16 16 16 16 16 17 20 24 27 30 32 32
9 7 5 7 10 7 5 17 20 22 26 30 33 33 34 32 27 26 27 25 25 31 34 33 35 37 37 38 38 38 38 38 38 38 36 36 35 33 30 29 28 28 26 24 23 21 20 18 17 17 16 15 14 14 14 14 15 19 24 27 29 31 31
11 12 12 10 10 11 4 7 14 19 24 29 30 31 34 33 27 23 23 25 29 34 33 33 36 38 37 38 37 37 38 38 38 37 36 36 36 34 32 30 29 28 27 26 24 23 22 20 19 18 18 17 15 14 14 14 15 17 22 26 28 29 28
11 12 14 13 14 17 13 5 3 7 15 23 30 34 33 30 27 23 20 23 30 33 34 35 36 36 36 36 36 36 37 37 36 36 37 36 36 35 33 31 30 28 27 26 25 25 23 22 21 21 20 19 18 16 15 16 17 17 20 23 26 26 25
12 12 13 13 16 21 18 12 11 12 11 9 12 28 35 32 26 22 21 26 31 35 38 38 37 36 35 34 35 35 35 34 34 35 36 36 36 35 33 31 30 29 28 27 25 25 24 22 22 23 22 21 20 19 17 17 18 19 19 20 21 22 22
13 15 15 15 16 19 16 11 14 14 15 23 29 21 19 31 31 23 22 30 35 37 39 38 36 35 34 33 34 34 34 33 33 33 33 33 34 34 33 32 32 30 28 26 25 24 24 23 22 22 22 21 20 19 18 17 18 19 19 18 19 19 20
12 14 15 16 17 17 13 9 11 11 9 10 21 33 27 11 26 31 31 35 38 39 41 40 37 35 34 34 34 34 34 34 33 32 32 31 31 31 30 30 31 29 27 25 24 23 22 22 21 21 20 20 20 20 19 18 18 18 18 18 19 20 21
11 12 14 17 19 18 13 8 7 9 8 7 12 22 32 28 7 15 25 31 36 38 37 37 36 34 32 33 34 33 34 34 33 32 31 29 29 29 28 28 28 27 25 24 23 23 22 21 21 21 21 21 21 21 20 19 19 19 19 20 20 21 24
11 12 12 15 19 18 14 9 7 7 9 11 16 23 23 27 25 19 23 25 30 35 33 31 34 34 30 28 29 30 32 31 31 31 31 30 30 28 26 25 25 24 23 22 22 23 23 23 22 22 22 22 23 22 21 21 21 20 19 19 21 23 25
10 10 11 14 18 19 15 10 8 8 12 14 17 22 21 15 17 21 30 32 34 38 36 32 31 31 27 26 27 28 29 29 29 30 32 32 31 29 25 22 21 21 22 21 20 20 20 20 20 20 21 22 23 23 21 20 20 19 17 17 21 23 24
8 8 11 15 16 16 16 12 6 6 11 13 14 15 18 16 15 22 30 31 30 33 34 31 27 24 23 25 26 27 28 28 28 30 30 30 30 30 27 24 21 19 19 19 18 18 17 16 16 18 20 22 22 21 19 16 16 16 15 15 17 21 23
15 15 16 18 16 14 16 15 8 5 8 10 11 12 14 16 17 22 26 28 29 30 31 32 28 22 21 24 26 26 27 27 28 29 28 28 29 29 28 27 24 20 18 17 17 16 16 15 15 17 20 21 20 19 19 17 16 16 16 15 15 17 19

ECMWFFLT1_925_spd_024.txt.gz
Wind_Speed
18 19 18 17 17 18 18 19 20 22 27 30 33 37 38 38 39 39 39 41 43 42 42 43 42 43 42 41 41 40 40 39 39 38 37 36 36 36 35 34 34 35 35 35 35 35 34 32 32 31 30 30 29 28 28 27 25 24 22 22 24 25 22
17 17 18 17 17 18 19 20 20 23 27 30 34 36 37 38 40 39 39 41 43 43 43 43 43 43 43 42 40 40 40 40 39 38 37 36 36 36 36 36 36 37 36 36 36 36 35 34 34 33 32 31 30 29 30 29 27 26 24 22 24 26 24
16 16 17 17 17 18 19 19 19 24 29 31 33 35 38 41 42 42 41 41 42 42 42 43 43 42 42 41 40 40 41 40 39 38 37 37 37 37 37 37 38 38 37 37 37 36 36 35 35 34 33 33 30 30 32 31 29 28 25 23 24 26 26
17 17 18 19 19 19 19 19 18 23 30 34 37 39 41 43 43 43 43 43 42 41 42 43 43 42 42 42 42 41 42 41 41 39 38 38 38 37 37 38 38 38 37 37 37 37 37 36 35 35 35 34 32 31 32 32 31 29 27 25 24 25 25
18 18 16 17 18 17 17 18 18 23 29 34 38 40 42 42 42 42 42 43 44 44 45 46 44 43 42 42 42 42 43 43 42 40 39 38 37 37 37 39 39 38 37 37 38 38 37 36 36 36 36 35 34 33 33 33 32 31 30 28 26 25 25
17 16 15 15 17 17 17 19 20 25 30 33 37 38 38 39 40 41 42 42 43 44 44 44 44 43 42 42 42 42 42 43 42 41 39 38 37 37 39 40 40 39 38 38 38 38 38 37 37 38 38 37 36 35 35 35 34 33 32 30 28 27 26
16 16 17 17 17 17 18 18 19 25 31 34 35 36 36 37 39 40 41 41 42 42 42 42 44 44 43 43 43 43 43 43 42 41 39 39 38 38 40 40 40 40 39 38 39 39 39 38 38 39 39 39 38 37 37 37 37 35 35 33 31 30 29
18 17 17 17 17 17 17 17 16 21 27 29 30 31 34 37 38 39 40 41 42 42 43 44 44 44 44 43 43 44 44 44 43 41 39 39 38 39 40 40 40 40 39 39 40 40 40 39 39 39 40 40 40 39 38 38 38 37 37 36 34 33 32
17 18 18 18 19 17 16 16 16 18 22 25 27 30 34 36 36 38 40 41 41 41 43 44 44 44 44 44 44 45 45 44 42 40 40 40 39 40 41 40 40 40 40 40 41 41 41 40 39 39 40 41 41 40 40 39 39 39 39 38 36 35 35
16 17 18 18 18 17 16 15 14 14 16 19 23 27 31 34 35 37 38 39 40 41 42 42 42 43 43 43 44 44 44 43 42 40 40 40 40 41 42 40 39 39 40 41 40 41 41 40 40 40 40 41 41 41 41 40 40 40 40 40 39 38 37
15 17 17 18 18 17 15 13 12 13 14 15 21 26 30 33 34 35 36 38 39 39 39 40 40 41 42 42 42 42 43 43 41 41 41 42 42 42 42 41 39 40 40 41 40 41 41 40 40 41 42 42 42 42 42 41 41 41 41 41 40 39 38
14 15 15 17 18 15 12 11 12 14 14 14 20 25 28 32 34 35 36 38 38 37 38 39 39 40 41 41 40 41 42 42 42 42 42 43 43 43 42 41 40 40 41 41 41 40 40 41 41 42 43 43 42 42 42 42 42 42 42 41 40 39 38
14 14 14 15 15 12 11 11 13 15 15 16 21 26 29 31 34 35 35 35 36 37 38 39 39 40 41 41 41 41 42 42 43 44 44 44 45 44 42 42 42 41 41 42 41 40 40 41 42 43 43 42 41 41 42 42 42 41 41 39 38 38 38
15 15 14 14 13 13 13 13 15 16 16 16 20 25 28 31 34 35 35 36 37 37 38 39 40 40 41 41 41 41 42 44 45 45 45 45 44 43 42 42 42 42 42 41 40 41 41 42 42 42 41 41 41 40 40 40 40 40 39 38 38 38 39
13 13 12 12 13 13 14 14 15 16 16 16 19 22 25 28 31 33 34 36 37 38 39 40 40 40 40 41 42 43 43 44 44 44 44 44 43 43 42 42 42 42 41 40 41 41 41 41 40 39 39 39 39 38 38 38 39 40 39 39 39 39 39
12 12 12 13 14 13 14 15 15 15 15 15 16 19 23 26 29 32 34 35 37 38 40 41 40 40 40 41 43 44 43 43 43 42 43 43 43 43 43 42 42 41 40 40 41 41 40 38 37 37 37 37 37 37 37 38 39 40 41 42 41 40 38
14 15 16 16 16 16 15 15 14 14 14 14 16 20 24 27 30 33 34 35 37 39 40 41 41 41 41 42 42 42 42 42 42 42 42 43 44 43 43 43 42 41 40 40 40 39 38 36 36 37 37 37 37 37 38 40 40 41 42 42 41 39 38
12 14 16 17 16 15 14 15 14 14 15 15 17 22 26 28 29 31 33 36 38 40 40 41 41 41 42 42 41 41 42 42 42 42 42 43 43 43 43 42 41 40 40 39 38 37 36 35 36 37 37 37 38 38 39 41 42 43 42 41 40 39 39
9 10 12 13 13 13 14 13 13 15 16 16 19 25 30 31 31 32 36 39 40 39 39 40 41 41 41 41 40 41 43 43 42 42 43 43 44 43 41 40 40 40 39 38 37 36 35 35 36 36 36 38 38 39 40 41 41 41 40 39 40 40 41
10 10 11 11 12 13 14 13 13 14 17 21 26 31 35 35 36 37 40 40 39 38 39 40 40 39 39 40 40 42 42 42 42 43 43 43 42 40 39 39 40 40 38 36 35 34 34 35 36 36 37 38 39 39 40 40 39 38 38 39 39 39 41
12 12 12 12 12 12 12 13 14 14 17 24 30 33 33 34 35 37 36 35 35 37 39 39 39 39 39 39 40 41 41 42 42 43 42 41 40 38 38 39 39 37 35 34 34 35 35 35 36 37 38 38 38 37 37 37 36 35 36 37 37 37 39
11 13 14 15 16 16 17 17 17 18 21 26 29 29 30 33 36 35 33 34 36 37 38 37 37 37 38 38 40 41 41 42 42 41 40 39 38 37 38 38 37 36 34 33 34 35 35 36 37 38 38 37 36 35 34 33 33 32 33 33 34 36 38
9 10 12 12 12 13 16 19 22 24 26 28 28 29 32 35 37 35 32 33 34 35 36 35 35 37 38 39 41 42 43 43 42 40 39 38 37 37 38 37 36 35 34 34 34 35 36 37 38 38 37 36 35 34 32 30 29 29 29 30 31 34 36
7 6 8 9 10 10 10 14 20 23 24 24 25 30 34 35 35 33 30 31 32 33 33 32 34 36 38 40 43 44 44 43 42 40 38 38 38 37 37 36 35 35 36 36 36 36 37 37 35 34 35 36 36 35 32 29 27 26 25 27 29 33 36
9 4 2 3 6 10 14 19 22 23 22 21 23 30 33 33 32 30 27 28 32 32 31 32 36 39 40 42 44 44 43 42 41 40 38 38 38 37 36 36 36 36 37 37 36 35 35 34 33 32 33 34 34 32 29 26 24 23 24 25 28 32 34
10 9 8 7 7 6 12 21 22 18 17 19 24 31 33 32 30 27 27 29 30 29 30 35 40 42 45 45 43 41 41 41 40 40 39 38 37 36 37 36 35 36 36 35 34 33 33 33 33 31 30 29 29 27 25 24 23 23 24 25 27 30 33
8 8 9 9 12 12 6 11 15 17 22 28 32 34 34 32 28 25 26 27 25 27 35 41 44 45 45 43 39 38 39 40 40 40 39 38 37 36 36 36 36 36 36 34 33 33 32 31 31 29 28 26 26 25 24 23 22 21 22 23 25 29 32
10 11 12 14 17 17 10 3 8 13 18 23 26 27 27 26 24 25 27 25 25 33 40 41 43 44 41 38 37 38 39 39 39 39 37 37 37 37 35 35 36 37 36 35 34 32 30 29 28 27 25 24 24 24 23 21 19 18 20 22 24 29 32
10 10 11 12 16 18 14 6 1 2 3 5 7 8 9 11 12 14 17 19 27 38 42 40 40 39 35 34 35 36 38 38 38 39 38 38 40 39 37 36 35 36 36 36 34 32 29 28 27 26 24 23 22 21 20 19 18 17 18 21 24 27 30
9 9 9 9 11 15 14 8 6 6 5 4 2 1 3 4 4 4 4 8 15 20 23 28 33 33 31 32 33 34 36 37 38 38 38 39 40 39 37 35 35 35 35 36 34 31 28 27 26 26 24 22 21 19 18 18 17 16 18 21 24 27 28
9 9 9 9 11 13 12 8 7 8 8 8 6 4 6 6 5 3 1 3 7 9 11 17 24 27 29 31 32 34 35 36 37 38 38 39 40 39 37 35 34 32 31 32 31 28 26 26 26 26 24 22 21 20 19 18 18 18 20 22 24 27 28
10 11 11 12 13 15 14 10 9 9 9 12 12 8 6 5 4 3 1 3 2 2 5 11 17 22 26 29 31 33 35 35 33 32 31 30 30 30 29 30 29 27 24 24 23 24 25 26 25 24 23 23 22 22 21 20 19 20 23 26 27 28 27
11 11 11 12 14 16 15 11 10 10 9 12 14 12 8 6 5 4 6 6 5 6 9 11 11 12 15 20 24 26 29 30 30 29 28 28 29 30 28 26 27 26 24 24 23 22 24 24 23 23 23 23 23 22 22 21 21 22 25 28 30 29 27
10 10 11 13 15 15 12 9 8 9 9 10 12 13 12 11 10 7 7 9 13 17 19 18 15 11 10 13 19 24 28 31 33 34 34 33 33 33 30 28 28 28 28 30 31 28 26 26 25 25 26 25 24 22 21 21 23 24 26 30 32 32 30
10 11 12 14 15 13 10 8 8 9 10 10 12 14 16 15 14 12 13 16 21 27 30 32 32 29 24 20 22 27 31 33 35 35 36 35 33 30 29 29 31 29 27 29 32 30 28 27 28 29 29 29 28 26 23 23 25 26 27 29 32 32 31
10 11 13 16 16 13 10 10 10 10 10 11 13 16 17 18 18 18 19 23 28 32 34 34 34 36 35 30 26 28 30 33 34 34 34 35 35 32 28 27 29 31 29 28 27 26 24 25 27 29 29 29 30 29 28 27 27 26 26 28 29 29 29
10 10 13 16 16 12 9 9 9 10 10 10 11 13 15 18 20 21 22 24 26 29 31 27 21 21 26 26 26 27 29 31 34 34 32 32 34 35 33 29 27 27 27 26 24 22 22 22 24 25 27 27 27 26 24 24 24 24 24 25 25 25 24
14 15 16 17 17 14 11 9 9 10 11 12 11 10 9 12 17 20 22 24 24 22 22 23 19 16 17 19 21 23 24 25 29 33 33 31 31 33 33 31 27 22 21 21 20 20 21 21 21 22 23 24 23 22 21 21 21 22 22 22 22 22 22

ECMWFFLT1_925_spd_027.txt.gz
Wind_Speed
18 18 17 16 16 17 17 18 19 21 26 30 32 36 38 38 39 39 39 41 42 42 44 45 44 45 46 46 47 46 44 43 42 40 39 37 36 34 34 34 35 37 37 36 36 36 35 33 32 31 29 29 29 29 27 26 25 25 25 25 25 24 24
17 17 17 17 16 18 19 19 19 22 26 29 32 35 37 38 39 39 39 41 43 43 44 45 45 45 46 47 46 45 44 43 42 40 38 37 36 35 35 35 36 38 38 38 37 36 34 33 32 32 31 30 30 29 28 27 26 26 27 27 26 26 25
16 17 17 17 17 18 19 18 19 23 27 29 31 34 36 39 41 42 42 41 43 43 43 44 45 46 46 46 45 44 44 44 42 41 39 38 37 36 36 35 37 38 38 38 37 35 34 34 33 33 32 32 31 30 29 28 28 28 28 28 27 27 27
18 19 19 19 19 18 19 18 18 23 28 31 34 36 40 43 44 43 43 43 44 43 43 45 45 45 45 45 45 44 44 44 43 42 41 39 38 37 36 36 37 37 37 37 37 36 35 34 34 34 34 33 33 32 31 30 30 30 30 29 29 28 28
19 19 17 16 17 17 17 18 18 22 28 32 35 38 41 43 42 41 42 43 44 45 46 47 46 46 46 46 45 44 45 45 44 43 42 40 38 37 38 38 38 38 37 37 37 36 35 35 35 35 35 35 34 33 33 32 32 31 32 32 31 30 30
17 17 16 16 17 17 18 18 19 25 30 33 35 38 39 39 38 40 41 42 42 43 44 44 45 45 44 45 45 43 43 43 43 43 42 40 39 38 39 40 40 38 37 37 37 37 37 36 36 36 37 37 36 35 34 34 33 33 34 34 33 33 31
16 16 17 17 17 17 19 19 20 26 32 34 35 36 35 35 37 39 39 40 41 41 41 43 43 44 43 44 44 43 43 42 42 42 41 40 39 40 41 41 40 39 38 37 37 37 37 37 37 37 37 37 37 37 36 35 35 35 35 36 35 34 32
17 17 17 18 18 18 18 18 18 23 28 29 29 29 31 33 36 37 38 39 40 40 41 43 44 44 44 43 43 43 43 42 41 41 40 40 39 40 41 41 40 40 38 37 38 37 38 38 38 38 38 38 38 38 37 37 36 35 35 36 36 35 33
16 16 17 17 18 17 17 17 17 20 23 25 26 28 31 33 34 36 39 40 39 40 42 43 43 44 44 43 43 43 43 41 41 41 40 41 40 41 42 42 41 39 38 38 38 37 38 38 38 38 38 38 38 38 38 38 37 36 36 37 37 36 36
14 14 15 16 16 16 16 16 15 15 15 18 23 27 30 32 34 36 38 38 39 41 43 42 41 42 43 43 42 42 42 41 41 40 40 41 41 42 43 42 40 39 39 39 37 37 37 37 38 38 38 38 38 38 38 38 37 36 37 38 38 38 38
12 13 13 14 15 15 16 15 13 13 12 14 20 26 29 32 34 34 36 38 40 41 41 40 40 41 42 42 41 40 41 41 41 40 41 42 42 43 43 42 40 39 39 38 37 36 36 36 37 37 38 39 39 39 38 38 37 37 37 38 39 39 39
10 10 12 14 15 16 16 14 13 14 14 15 20 25 28 31 33 34 36 39 40 40 39 40 40 41 41 41 40 40 40 41 41 42 42 42 42 42 43 42 40 39 38 38 37 36 36 36 37 38 38 39 39 39 38 37 37 38 39 39 40 40 39
9 9 12 14 15 15 15 13 14 16 16 16 21 26 28 30 33 34 35 37 39 39 39 39 40 41 41 41 40 40 41 42 43 42 42 43 42 42 41 40 40 39 38 38 37 36 36 36 37 38 38 38 38 38 37 36 37 38 39 40 40 40 40
10 11 11 11 11 13 14 15 15 16 16 16 19 24 27 30 33 35 35 36 37 38 38 39 40 41 41 41 40 41 42 44 43 43 42 42 41 40 39 39 39 39 38 37 37 37 37 37 37 36 36 36 36 36 36 36 38 39 40 40 40 40 39
11 12 13 12 12 13 14 16 16 15 16 16 17 21 25 27 30 32 33 34 36 37 39 40 40 41 40 40 41 43 44 43 42 41 41 39 38 39 39 38 38 37 36 36 37 37 36 36 35 34 34 34 34 35 35 37 39 40 40 40 39 39 38
12 13 14 15 16 16 16 17 17 16 17 16 16 19 23 25 28 31 32 34 35 37 39 40 41 41 40 40 43 44 42 41 41 40 39 38 38 38 38 37 36 35 36 36 36 35 34 34 33 33 34 34 34 34 35 38 40 41 41 41 40 38 37
12 13 14 14 14 15 16 16 16 15 15 16 17 20 24 26 29 32 32 33 36 38 40 40 41 41 41 43 44 42 41 41 40 39 39 39 38 37 37 36 35 34 35 35 34 34 33 33 33 34 34 35 35 35 37 39 41 41 41 40 40 38 37
11 12 13 13 13 13 14 15 15 16 16 16 17 21 25 27 28 29 30 33 36 39 39 39 40 40 42 42 41 39 40 40 40 39 39 39 38 37 36 35 34 34 34 34 34 33 33 33 34 35 35 35 36 36 38 40 41 40 40 40 39 39 38
12 13 12 12 12 13 15 14 14 16 17 17 20 26 31 32 30 31 34 37 38 36 36 37 39 39 40 40 38 38 40 39 39 39 39 39 39 37 35 34 34 34 35 34 34 34 34 35 35 35 35 36 36 38 40 40 40 39 39 39 39 39 39
10 11 11 11 11 12 12 12 13 14 16 20 26 31 34 35 34 36 38 37 35 34 36 37 38 39 39 38 38 39 38 38 39 39 39 38 37 35 34 34 35 36 35 34 34 34 35 36 36 36 37 37 37 39 39 39 39 38 38 39 39 39 39
7 7 8 9 11 11 11 11 10 10 13 20 26 29 29 31 33 34 34 34 34 35 37 38 37 37 37 37 37 38 38 38 39 39 37 36 35 34 35 36 36 36 36 35 35 37 37 37 37 37 38 38 38 38 38 38 38 38 38 39 39 38 39
5 5 7 7 8 10 11 12 14 15 18 22 25 26 27 31 33 32 31 33 35 35 37 36 35 34 34 34 35 36 37 39 39 37 36 34 34 35 36 37 37 37 37 36 37 37 37 36 37 38 38 38 38 38 37 37 37 38 39 39 38 38 39
5 4 5 5 6 7 7 10 15 20 23 24 25 27 30 32 34 32 29 30 32 33 34 33 32 34 34 35 36 37 37 38 37 36 35 34 35 37 38 38 39 38 38 38 37 37 37 37 37 37 38 38 38 38 37 37 37 38 38 37 37 37 37
7 6 5 4 3 2 4 7 11 14 17 21 23 28 31 31 30 28 26 27 29 30 30 30 32 34 36 37 39 39 39 39 37 35 35 36 37 38 38 39 39 39 39 39 38 38 37 37 36 36 38 38 38 38 37 37 38 38 37 37 36 35 35
9 9 9 9 9 8 6 5 7 9 10 13 19 24 25 25 26 25 23 25 28 27 27 29 32 35 36 38 40 40 40 39 38 36 36 38 40 40 40 40 39 39 39 39 38 36 36 36 36 36 37 37 37 38 37 37 38 37 36 35 33 31 33
8 9 8 9 12 13 12 7 3 9 11 14 19 23 22 22 23 22 23 25 25 25 27 32 36 37 39 39 38 37 38 38 39 40 40 41 42 41 40 40 38 37 38 37 36 35 35 36 36 35 35 35 35 36 36 37 36 35 34 32 29 28 30
6 7 8 9 12 14 13 11 6 3 8 11 12 15 20 22 20 20 22 22 21 26 33 39 41 40 40 38 35 35 37 39 41 43 44 43 42 40 40 39 38 38 37 36 35 34 34 34 34 32 32 33 34 34 35 36 35 33 30 27 25 26 29
9 11 12 14 18 19 15 11 10 7 2 2 3 7 14 20 20 19 20 18 21 30 36 37 37 38 37 35 34 35 36 39 41 42 42 41 40 39 39 39 38 37 36 35 34 33 32 30 30 29 27 27 29 31 31 31 31 29 27 25 24 25 28
10 10 12 13 16 19 16 11 9 11 11 8 4 4 10 15 17 16 16 17 23 28 26 23 27 31 30 30 32 34 36 39 39 39 39 38 38 38 37 36 36 35 34 33 31 29 26 26 26 25 23 22 22 24 26 26 26 25 24 23 23 23 25
10 10 10 10 12 16 15 11 10 13 15 15 11 4 5 12 15 13 12 17 22 21 18 18 22 25 26 28 31 34 36 37 38 38 37 36 36 35 32 33 33 32 30 30 28 25 22 21 21 20 17 16 16 17 21 23 24 23 22 22 21 22 24
10 10 10 10 13 16 14 10 10 12 14 17 15 10 3 4 12 15 16 19 21 19 19 19 20 22 26 28 31 33 34 35 36 37 36 35 34 33 32 32 30 28 27 28 28 28 25 23 23 22 19 16 13 15 19 21 22 22 21 20 21 22 23
9 10 10 10 12 15 14 11 11 11 11 14 16 14 11 7 3 8 13 18 20 19 21 22 22 24 27 29 31 33 34 33 33 34 35 36 37 38 37 36 33 32 32 33 32 32 31 30 30 28 27 25 23 21 21 21 21 22 22 21 22 23 23
8 9 10 10 11 13 13 11 11 10 9 11 14 14 12 11 9 8 7 10 13 16 20 22 24 26 28 30 33 33 33 33 33 34 36 37 38 38 37 38 38 36 35 35 35 33 33 34 34 31 29 28 28 26 25 24 23 23 23 23 23 23 23
7 7 8 9 11 12 11 9 8 9 9 10 13 14 13 12 11 9 6 6 8 12 16 21 25 26 27 29 30 30 31 33 33 32 32 33 34 34 34 36 38 38 38 39 40 38 35 33 32 31 30 30 31 30 28 26 25 25 25 26 26 26 26
7 7 8 9 10 11 10 9 9 9 9 11 13 14 14 15 14 11 8 6 8 10 12 15 17 19 22 25 27 29 31 33 35 35 34 32 31 32 33 37 39 40 42 44 46 46 45 41 37 35 35 35 36 35 30 27 28 28 27 27 27 28 28
7 8 9 11 10 10 10 10 10 9 9 10 11 12 12 13 13 13 11 7 5 6 7 8 10 13 17 21 25 29 32 33 35 36 37 37 37 35 32 33 35 36 36 37 38 40 43 42 39 38 39 39 38 34 29 28 30 29 27 27 27 27 27
8 8 10 12 11 10 10 11 11 11 10 10 11 11 11 12 13 13 13 11 7 3 1 4 6 9 11 14 18 23 28 30 32 34 35 37 40 40 35 29 25 25 28 32 35 35 35 34 34 35 38 38 35 30 25 24 27 27 26 27 27 27 25
11 11 12 13 13 11 11 11 11 10 11 11 12 12 11 12 14 16 16 16 13 12 12 11 9 8 7 7 7 11 17 21 25 29 33 35 36 37 38 35 29 26 26 28 29 29 29 31 32 34 35 33 31 29 24 21 23 26 27 27 28 27 25

ECMWFFLT1_925_spd_030.txt.gz
Wind_Speed
16 16 17 15 15 17 17 18 18 21 26 28 30 33 34 35 36 36 37 38 40 40 41 43 43 43 43 44 44 44 43 42 41 40 39 38 37 36 35 35 35 35 34 33 33 33 33 31 30 30 30 30 29 27 25 23 22 22 21 21 22 23 23
13 15 16 16 16 17 18 18 19 22 26 28 31 33 33 35 36 37 38 39 41 42 42 43 43 44 44 45 45 44 44 42 41 40 39 38 38 37 37 36 36 36 36 35 34 33 32 31 30 30 30 30 29 28 26 24 23 23 23 22 23 24 24
13 15 16 17 17 18 19 18 19 23 27 28 30 31 34 37 39 40 39 38 40 41 41 41 43 44 44 43 43 43 44 43 41 40 39 39 39 38 37 37 37 36 36 35 34 32 31 31 30 30 29 30 30 28 27 25 24 24 24 24 24 25 25
14 16 17 19 19 18 17 17 18 23 28 31 33 35 38 41 42 41 40 40 40 40 41 43 44 44 44 43 42 42 43 42 42 41 41 40 40 38 37 37 37 36 35 34 34 33 32 31 30 30 29 29 29 29 28 26 25 26 26 25 25 25 25
14 15 15 16 16 15 16 17 18 23 28 31 34 36 39 41 40 39 39 40 41 42 44 45 43 43 43 43 42 42 42 43 43 42 41 40 39 38 37 37 37 37 36 34 33 32 32 31 31 30 30 30 30 30 29 28 27 27 27 27 26 25 25
14 14 14 14 15 16 17 18 20 25 30 32 34 36 38 38 37 37 39 40 40 41 42 42 41 41 42 42 42 40 40 41 41 41 40 39 38 37 38 38 38 37 36 34 33 33 32 32 32 31 31 30 30 30 30 29 29 28 28 28 28 27 27
14 14 14 14 15 16 18 18 20 26 32 33 34 35 34 34 36 38 38 38 40 40 39 40 41 42 42 41 40 39 38 39 40 40 40 39 38 38 38 38 38 37 35 34 33 33 33 33 33 32 32 31 31 31 31 31 31 30 29 29 29 29 29
16 15 15 16 17 17 17 17 17 22 28 29 29 30 31 32 34 35 36 38 40 39 40 41 43 43 42 40 40 40 40 39 39 40 40 39 39 39 39 39 38 36 34 33 33 34 34 34 34 33 32 32 32 32 33 33 33 32 31 31 31 31 31
15 14 14 15 15 14 14 15 16 19 23 25 27 29 31 32 33 35 37 39 39 39 41 43 43 43 42 40 41 41 40 39 38 39 40 40 40 40 40 39 37 36 34 34 34 34 34 35 35 34 33 33 33 33 34 34 34 33 33 33 32 32 33
12 12 12 11 10 10 11 13 13 14 16 19 23 27 29 31 33 35 37 38 38 41 44 43 41 41 40 41 41 40 39 39 38 38 40 40 40 39 39 38 37 35 35 34 33 34 34 35 35 35 34 34 34 35 35 35 35 35 35 34 34 34 34
10 10 9 8 8 9 11 12 12 13 13 15 20 26 28 31 34 34 36 37 39 42 43 41 40 39 39 40 39 38 39 39 38 39 40 40 39 39 38 38 36 35 34 34 33 34 34 34 35 35 35 36 36 36 36 36 36 36 36 36 36 35 35
9 9 9 10 10 11 12 13 13 14 13 14 20 25 28 31 33 34 36 38 41 42 40 40 40 39 39 39 39 39 40 40 40 40 40 40 39 38 38 38 37 35 34 34 34 34 34 35 35 36 37 38 38 38 38 37 36 37 37 37 37 36 35
6 7 9 10 10 10 12 12 13 15 14 15 21 26 29 31 33 34 35 37 39 40 38 39 40 39 39 39 39 40 41 41 42 41 40 40 39 38 38 39 39 37 35 34 34 35 35 36 36 37 39 39 39 39 38 37 37 37 38 38 37 37 36
5 7 8 8 9 10 12 13 14 15 15 15 19 25 28 30 32 34 35 36 38 38 38 39 39 39 39 39 39 40 42 43 42 41 41 40 39 39 39 40 39 38 36 35 35 36 36 37 38 39 40 40 40 39 38 37 38 38 38 38 37 37 37
7 8 8 9 10 12 13 14 14 15 15 15 17 21 25 27 30 32 33 34 36 37 39 39 39 40 40 39 40 42 43 42 40 40 40 39 39 39 40 40 40 38 37 36 36 37 37 37 39 40 40 40 39 39 38 38 38 39 40 39 38 37 37
7 7 8 10 11 12 13 14 15 15 15 15 15 18 22 25 28 31 33 34 36 38 40 40 39 39 39 40 42 43 42 40 39 39 39 39 39 40 40 40 39 37 37 38 38 38 38 38 39 40 40 39 38 38 38 38 40 41 41 41 40 38 37
8 9 9 11 12 11 12 13 13 13 14 15 16 20 24 26 29 32 33 34 36 38 39 39 39 39 40 42 43 42 40 39 39 38 39 40 40 39 39 39 38 38 39 39 39 40 40 40 40 41 40 39 38 38 38 40 41 42 42 42 40 39 37
9 10 10 10 11 11 12 13 13 13 15 16 18 22 26 28 29 29 31 33 36 38 37 38 38 39 41 42 41 39 38 38 38 38 39 39 39 38 38 38 39 39 39 40 41 41 41 41 42 41 39 38 38 39 39 41 42 43 42 42 41 40 38
9 10 9 8 8 10 12 13 13 14 16 16 18 24 30 32 30 31 35 38 38 36 35 37 38 39 40 39 37 37 38 37 37 38 38 38 38 37 37 38 39 40 41 41 42 42 41 42 41 40 39 38 39 39 39 41 42 43 43 41 40 40 39
8 9 9 8 7 9 10 11 11 12 14 17 22 28 31 31 32 34 36 36 34 34 36 38 38 39 38 38 38 39 38 37 38 38 38 38 37 37 37 39 40 41 41 42 41 40 40 40 40 39 39 40 39 39 39 41 42 43 42 41 40 39 39
6 7 9 8 7 8 9 9 10 10 12 18 24 26 26 28 30 30 29 30 32 34 37 38 38 38 37 36 37 37 37 37 38 38 37 37 37 37 38 39 40 41 41 40 40 40 40 39 39 39 39 39 39 37 38 41 42 42 41 40 40 38 38
6 7 8 8 8 9 9 9 10 11 13 16 19 21 23 27 29 27 26 30 33 33 34 34 33 33 33 33 35 37 38 38 37 36 35 36 36 36 37 39 40 41 40 39 39 38 38 38 38 38 38 38 37 37 39 40 40 40 40 40 39 38 37
5 7 7 8 8 8 8 9 12 14 14 13 15 18 21 22 24 24 24 27 29 29 29 29 29 31 32 33 35 36 37 37 35 34 34 34 35 36 38 39 40 40 40 38 37 36 36 36 37 37 37 36 37 39 40 39 38 40 40 39 38 37 36
4 5 6 7 7 6 7 7 10 15 16 15 16 21 22 21 22 24 23 23 25 26 27 28 30 32 33 34 36 36 36 36 36 35 36 37 39 40 40 41 41 40 40 39 37 36 36 36 35 35 36 37 39 41 40 38 38 39 39 39 38 37 37
4 4 5 6 6 6 7 7 4 10 14 15 16 19 22 23 24 24 22 23 26 26 27 30 33 35 36 36 36 35 35 36 38 38 39 39 41 41 41 41 41 40 39 39 38 37 36 35 34 33 35 38 40 41 39 37 36 37 37 37 37 37 37
4 5 5 7 9 8 8 8 4 4 5 7 12 17 20 23 24 22 21 23 23 23 27 32 36 37 37 35 34 34 37 39 40 40 41 41 42 41 40 40 38 37 37 37 36 34 33 34 34 33 35 37 38 39 39 37 36 36 37 36 37 37 37
2 3 5 7 11 11 11 12 12 11 10 6 5 15 20 22 21 19 20 20 20 24 31 34 33 33 33 32 32 35 38 40 42 43 44 44 43 41 40 40 38 37 36 35 33 32 32 33 33 33 34 36 37 38 38 38 37 37 37 37 37 37 37
3 5 6 8 12 13 11 12 14 15 16 15 8 7 17 21 19 16 16 17 20 28 31 27 24 26 28 29 31 33 35 38 41 42 42 41 39 38 39 39 38 37 36 34 33 33 33 33 33 33 33 34 36 38 38 39 39 39 39 38 38 37 37
7 8 8 9 12 14 12 10 12 14 16 17 16 10 5 13 15 15 16 18 24 28 25 21 23 25 26 27 29 32 34 37 39 39 38 36 36 37 37 37 38 37 37 36 34 32 32 32 32 32 31 31 33 36 37 38 39 40 41 39 38 37 37
9 9 9 10 11 13 13 11 11 14 17 17 18 18 12 5 4 8 11 14 17 19 20 22 24 24 25 27 30 31 34 35 36 37 36 35 37 37 36 36 37 38 38 38 36 33 31 31 31 31 29 29 30 33 35 36 37 39 40 40 39 37 36
8 8 9 10 11 13 14 12 11 13 16 18 19 18 17 15 10 4 2 6 7 9 16 21 22 23 26 29 30 31 32 33 33 35 36 36 37 37 37 36 35 34 36 37 38 37 35 34 33 32 29 29 30 32 33 33 35 37 38 37 36 35 35
9 9 9 10 13 14 13 13 13 13 14 16 18 17 16 15 14 10 8 7 5 4 10 16 20 23 25 28 29 31 32 31 32 34 35 36 37 38 38 38 36 34 34 33 33 34 34 33 33 32 30 30 30 31 33 34 35 37 36 34 34 35 36
10 11 11 13 14 15 13 12 13 13 13 15 17 17 15 14 14 13 11 9 6 3 3 8 15 20 22 25 28 29 30 31 32 32 34 35 37 37 37 36 36 35 33 32 31 29 28 28 30 31 31 30 28 31 35 37 36 35 35 35 35 36 36
9 10 11 12 14 15 14 13 12 13 13 14 16 16 15 15 16 16 15 13 9 5 3 3 7 13 17 20 23 25 28 31 33 32 32 34 36 36 36 36 35 35 35 36 36 33 29 28 29 29 30 29 29 30 32 31 32 34 37 38 38 38 36
8 9 9 11 13 14 13 12 13 14 14 14 15 16 16 17 18 18 18 17 14 10 6 4 4 6 8 11 14 17 20 25 28 30 31 33 34 36 37 38 38 38 39 42 45 44 41 38 34 29 25 23 24 27 29 28 31 35 38 40 42 41 39
7 7 8 10 12 13 13 12 12 12 12 13 15 16 16 17 18 18 18 17 15 12 8 5 4 4 4 4 5 6 8 11 14 16 19 22 25 29 33 36 39 41 42 44 46 48 49 47 43 39 36 31 29 30 32 35 37 37 37 40 42 42 41
7 8 9 11 11 11 12 12 11 10 10 10 12 13 14 15 16 16 15 15 14 12 9 6 5 4 4 5 5 6 6 6 7 8 9 11 13 16 20 25 31 36 39 41 43 47 49 48 48 50 50 46 42 40 40 40 41 41 41 42 43 41 40
10 11 11 11 11 10 10 10 10 9 9 8 9 10 11 12 12 12 12 12 12 11 10 8 7 6 7 8 7 8 9 9 10 11 11 11 12 13 13 15 20 26 29 32 36 43 47 48 48 51 50 47 47 46 44 42 44 45 43 42 40 38 37

ECMWFFLT1_925_spd_033.txt.gz
Wind_Speed
18 18 18 17 18 19 19 19 19 22 25 26 28 31 32 32 31 30 28 32 34 32 34 37 36 34 34 35 38 39 39 37 36 37 34 32 32 32 33 34 32 31 29 29 31 31 31 30 29 29 26 20 16 17 18 18 18 16 14 14 16 17 17
16 17 18 17 18 20 20 19 20 23 25 26 28 30 31 32 32 32 31 33 38 37 36 39 39 37 36 37 37 39 40 37 36 37 34 32 35 36 36 36 34 34 33 32 32 32 32 31 30 29 29 25 19 16 18 18 18 17 15 15 17 17 18
15 16 17 18 19 20 20 19 19 24 26 27 29 30 32 33 34 36 34 33 37 37 34 37 41 40 37 37 38 40 41 38 36 37 35 34 37 36 34 36 36 35 34 33 33 32 32 32 31 30 30 28 23 18 17 16 17 17 16 17 19 20 20
15 17 17 19 20 18 18 18 19 24 28 29 32 33 35 37 37 38 37 35 36 36 36 38 41 40 37 37 38 38 40 39 37 37 35 34 34 34 32 34 36 34 33 34 33 32 32 32 31 31 30 29 27 22 17 16 16 17 17 20 22 21 21
15 15 15 16 17 16 16 18 20 25 29 31 33 33 34 37 36 36 37 37 36 37 39 38 36 35 36 36 36 35 38 40 39 37 35 32 33 34 34 34 35 34 33 34 33 33 33 32 31 30 30 29 27 23 19 17 16 16 17 22 24 23 22
13 13 14 15 16 17 19 21 24 29 32 32 33 33 33 34 34 35 36 36 36 36 36 35 34 34 36 37 35 34 36 39 39 38 36 34 35 36 35 35 35 34 33 33 34 34 33 33 32 31 31 29 27 25 23 20 17 16 18 24 26 24 24
11 12 13 15 16 18 20 21 24 29 32 32 31 31 31 31 32 34 34 34 36 35 33 35 36 35 37 38 35 35 36 37 38 39 37 36 37 37 36 36 37 36 35 34 35 35 34 34 34 33 32 31 29 29 28 25 21 17 18 25 27 26 26
11 10 12 15 16 16 18 18 20 25 27 28 27 28 29 31 31 33 33 34 36 35 34 36 36 34 37 38 36 37 38 37 37 39 39 36 35 35 35 35 37 38 36 35 36 36 36 35 35 34 34 33 32 32 31 30 27 20 20 27 29 28 28
11 9 9 11 12 13 13 14 16 19 21 23 25 26 29 31 31 32 34 34 34 35 36 37 35 34 38 41 38 38 38 36 36 37 38 36 33 33 33 33 36 39 39 36 35 36 38 37 37 37 36 35 35 35 33 33 30 26 26 30 30 30 31
10 8 6 7 9 10 10 11 12 14 15 19 23 25 27 29 30 31 33 33 33 36 38 37 34 32 36 39 37 36 37 36 35 35 36 35 33 32 32 32 33 37 39 37 33 35 39 39 38 38 38 37 36 36 36 35 34 31 31 31 31 32 33
7 6 5 7 8 9 11 12 13 14 14 16 21 25 27 28 29 30 32 33 34 36 36 36 33 31 34 37 35 34 35 37 36 35 35 35 33 33 34 33 31 33 37 37 33 34 38 41 40 40 40 39 39 38 38 37 36 35 33 32 32 33 34
4 5 6 8 8 9 11 11 13 14 14 16 20 24 26 28 29 31 31 33 35 35 34 34 33 32 32 34 34 34 35 36 36 35 35 35 34 34 35 34 32 31 35 37 34 33 36 40 42 42 42 41 40 40 39 39 38 37 35 34 33 34 35
4 4 5 6 6 8 9 10 13 16 15 16 20 24 26 28 30 31 30 32 35 33 31 32 33 32 32 34 35 34 35 36 37 36 35 36 36 35 34 35 34 32 33 35 35 34 34 38 42 44 43 43 42 41 40 40 39 39 37 36 35 36 36
6 6 6 5 7 9 10 11 13 14 13 14 19 23 26 27 30 30 30 32 34 32 31 31 32 32 32 33 33 34 36 37 36 36 36 36 36 35 34 34 35 33 33 34 35 35 35 37 40 43 43 43 42 42 41 40 40 40 39 38 37 37 37
7 7 6 6 8 9 10 11 12 11 12 13 16 20 23 26 28 28 28 30 30 32 32 30 30 33 32 32 34 37 37 36 34 33 36 36 35 35 35 34 34 34 33 36 37 36 35 36 36 38 41 42 41 41 40 40 40 41 41 40 39 38 37
7 6 6 7 9 9 10 11 11 11 11 12 14 18 22 24 26 28 30 31 31 32 33 30 32 36 35 33 37 39 38 38 36 33 35 39 38 38 39 36 35 35 34 37 39 36 33 34 33 34 37 38 39 39 38 39 41 42 42 41 41 40 39
5 5 6 7 8 8 9 10 10 10 11 13 15 19 22 24 26 29 32 32 32 34 33 31 33 37 36 35 36 37 38 40 40 36 37 41 40 39 41 38 36 36 35 37 39 36 34 35 34 32 31 33 36 36 36 39 42 42 42 43 41 39 39
5 6 7 5 5 6 7 10 11 11 13 15 16 19 23 25 25 27 30 32 33 34 33 32 32 36 38 36 33 37 40 39 38 38 37 39 38 38 40 38 35 35 34 35 37 36 34 34 34 33 31 29 31 33 35 39 42 42 43 44 43 41 38
8 7 6 4 5 6 7 9 10 12 13 15 17 22 26 27 25 26 30 31 31 30 30 31 33 37 39 34 33 39 41 37 37 37 35 36 37 36 37 37 36 35 34 35 35 35 34 32 32 33 32 30 30 32 33 37 41 43 44 43 44 43 39
8 7 6 4 5 7 8 7 8 10 13 16 20 24 25 26 27 29 29 26 24 26 29 30 30 32 34 33 35 40 40 36 36 34 32 33 35 34 35 37 36 35 34 33 33 33 34 35 33 32 33 33 32 32 33 36 41 43 43 44 43 43 41
6 6 6 5 6 7 7 7 9 10 12 16 19 20 21 24 27 28 25 23 24 28 32 31 30 30 29 29 33 35 35 35 33 29 29 31 32 32 34 35 35 35 33 31 32 33 34 34 34 34 35 34 33 33 34 36 40 42 42 44 44 42 42
5 5 6 5 6 7 7 8 10 11 12 13 15 18 22 25 26 25 24 25 26 27 28 28 28 27 25 26 29 30 31 31 28 26 27 29 30 31 33 34 35 34 32 30 31 32 33 33 34 35 35 34 34 35 34 34 38 42 42 43 43 41 40
4 5 6 6 7 8 8 9 10 11 12 13 15 18 21 22 23 23 23 24 25 24 26 26 24 24 25 26 26 28 29 30 30 29 29 30 32 33 34 35 34 34 35 34 31 31 33 34 35 34 34 36 37 36 35 33 35 41 42 41 43 41 40
4 5 5 6 7 7 8 9 9 9 10 12 15 17 18 19 21 21 20 21 24 25 25 24 24 28 29 27 26 30 34 38 39 38 35 34 35 36 36 36 35 36 39 37 32 32 34 34 34 35 35 37 37 36 36 34 35 40 41 40 42 41 41
3 4 4 5 6 7 8 8 7 6 8 11 13 14 16 18 20 21 19 20 23 23 22 24 27 31 31 30 33 38 41 43 42 40 38 36 35 35 35 35 35 35 38 37 33 33 34 34 36 37 35 35 36 38 38 34 33 38 41 40 41 41 41
4 5 5 5 5 6 6 6 4 1 2 5 7 9 14 17 18 18 18 18 20 22 23 27 30 31 31 33 36 38 40 41 40 39 39 39 37 35 34 34 35 36 38 38 34 32 33 34 36 36 34 35 36 38 39 35 33 36 40 40 40 41 41
3 4 5 5 6 6 5 6 8 7 6 5 3 4 11 15 15 15 15 16 18 20 20 21 24 26 28 30 30 30 33 35 36 38 39 38 35 32 31 32 34 34 35 35 32 31 33 33 34 35 35 34 35 36 38 38 36 36 39 41 41 42 42
2 3 3 5 7 6 5 8 10 10 10 10 8 2 6 12 13 12 13 13 14 15 14 17 22 24 27 28 27 27 30 33 35 36 34 30 29 29 28 29 31 30 30 30 30 32 34 32 32 34 33 32 34 37 38 38 38 40 41 41 42 43 43
4 3 4 5 7 7 6 8 10 11 11 12 11 8 2 6 8 7 8 7 7 8 11 18 23 25 27 29 29 30 33 36 37 35 30 28 29 30 27 26 27 27 27 28 28 30 32 31 31 31 30 29 32 38 40 37 39 43 44 43 44 44 44
6 5 5 5 6 7 7 8 11 11 11 11 11 10 8 5 5 6 5 3 1 2 8 13 18 22 25 27 28 29 31 32 32 29 27 27 28 28 26 25 26 27 27 29 30 30 30 32 32 31 30 28 29 34 36 35 37 43 47 46 46 46 46
6 6 5 6 6 6 7 9 11 12 12 12 12 13 13 11 9 9 6 4 2 2 6 11 16 20 21 22 24 25 25 25 25 25 25 25 26 27 26 25 25 25 27 29 30 29 30 31 31 31 30 29 29 32 33 32 34 40 46 47 46 45 47
6 6 6 6 5 5 7 9 11 12 14 14 14 14 15 14 13 11 7 5 4 2 2 8 13 16 17 17 19 21 20 20 20 22 23 24 24 25 26 25 25 25 27 28 28 31 32 31 30 31 29 28 30 32 29 28 29 33 39 44 45 46 47
5 6 6 6 6 6 7 9 10 12 14 15 15 16 15 15 14 12 8 6 6 4 2 3 7 10 12 12 12 14 16 17 18 19 20 22 24 24 23 24 24 23 24 26 28 31 33 31 30 30 30 30 32 31 28 29 31 33 38 43 45 47 48
6 6 6 6 7 7 9 11 11 12 14 15 15 15 15 15 15 13 12 11 9 7 6 5 4 4 5 5 6 7 9 12 14 15 15 16 20 22 21 22 24 24 25 29 31 32 33 33 33 34 34 33 32 29 27 30 34 38 44 48 49 46 45
6 6 6 7 8 9 11 12 13 14 15 15 14 15 16 16 15 15 14 13 12 11 9 9 8 7 6 5 3 3 3 4 6 7 7 9 12 15 16 18 22 23 24 27 30 31 31 31 32 34 36 36 34 31 29 30 36 45 52 54 53 50 48
7 7 7 8 9 10 12 13 14 15 14 13 14 15 17 17 16 15 15 14 15 14 13 11 10 10 9 8 7 6 4 3 2 1 1 4 6 7 9 13 18 20 21 22 24 26 28 29 30 31 31 32 36 39 40 41 46 52 54 53 52 53 53
8 8 9 10 10 10 12 13 14 14 14 13 13 15 17 16 15 14 15 16 16 16 15 13 12 12 11 10 9 8 7 6 4 3 2 1 3 4 4 7 12 17 20 22 23 26 28 31 35 36 35 34 37 41 45 49 49 46 46 48 49 49 50
12 11 11 12 12 12 13 13 13 13 13 12 13 14 15 14 13 12 13 14 14 13 13 12 11 11 11 10 9 8 7 5 4 3 2 2 3 4 4 5 8 12 16 19 22 26 30 34 37 40 41 42 44 44 45 47 46 43 44 48 49 47 47

ECMWFFLT1_925_spd_036.txt.gz
Wind_Speed
15 16 17 16 17 18 19 20 21 23 27 29 30 31 31 31 30 29 29 30 31 31 32 32 32 31 29 29 29 28 27 26 26 25 24 24 23 22 22 21 21 21 21 20 20 20 20 19 19 19 18 19 19 17 16 15 15 15 14 14 13 12 12
15 15 17 17 17 19 20 21 21 24 27 29 30 31 31 31 31 31 30 30 32 32 32 33 33 32 30 30 30 29 29 29 27 25 24 24 24 23 23 22 21 22 22 21 20 20 20 19 19 19 19 19 19 18 17 16 17 16 15 15 14 13 13
15 15 16 17 17 18 20 20 21 25 27 28 30 31 33 33 34 33 32 31 32 32 32 33 34 33 32 32 31 30 30 29 29 27 26 25 25 24 23 21 22 21 21 22 21 20 19 19 20 21 20 20 19 19 18 17 17 17 17 16 15 15 15
15 16 16 18 18 18 18 19 20 24 27 29 31 32 34 35 35 34 33 32 33 33 33 34 34 33 33 33 32 31 30 31 31 30 28 26 24 24 23 22 22 22 22 22 22 21 19 20 20 21 21 20 19 19 19 19 18 18 18 17 17 17 16
16 15 15 16 16 16 17 19 21 25 29 31 33 33 34 35 34 33 33 33 33 35 36 35 33 33 33 33 32 31 31 33 32 30 29 27 24 23 24 24 23 23 23 22 22 22 21 21 21 21 22 22 21 20 20 20 19 18 18 18 18 18 17
14 14 14 14 15 16 18 20 23 27 30 31 32 31 31 32 33 33 33 33 33 33 33 34 33 33 34 34 32 31 32 33 33 31 30 29 26 24 25 25 24 24 24 23 22 23 23 23 22 22 22 22 22 21 21 21 20 19 19 19 19 19 17
13 13 14 15 15 17 19 19 22 26 28 28 28 28 28 30 32 33 32 32 33 33 32 34 34 33 34 34 33 33 33 33 33 33 32 30 28 27 26 26 26 25 24 24 24 24 24 24 24 24 23 23 22 22 22 22 21 20 20 20 20 20 18
11 11 13 14 14 15 16 16 17 21 24 25 26 28 29 29 30 31 32 33 33 33 33 34 35 34 33 33 33 34 34 34 33 33 33 31 29 29 28 27 27 27 26 25 25 25 25 26 26 25 25 24 23 23 23 22 22 21 21 21 21 21 19
8 8 9 10 11 11 11 12 14 17 21 24 26 28 29 29 29 30 32 32 32 33 34 34 34 34 33 33 34 35 35 34 33 33 33 32 31 30 30 28 28 28 28 27 26 26 27 27 26 26 26 25 24 24 24 23 23 22 22 22 23 22 21
5 6 7 8 9 9 9 10 12 15 17 20 24 26 28 29 30 30 31 32 32 33 35 35 34 33 33 33 34 34 34 34 33 33 33 33 32 31 31 30 29 29 29 29 28 27 27 28 27 26 26 26 25 25 24 24 24 23 23 23 23 23 22
3 4 5 7 8 9 11 11 12 14 14 16 21 25 27 28 30 30 31 33 33 33 34 34 33 33 34 34 34 34 34 34 34 34 34 34 33 32 32 31 30 29 30 30 30 28 27 27 28 27 26 26 26 25 25 25 25 25 25 24 24 24 23
2 4 5 7 8 9 11 11 11 13 14 16 21 24 25 27 29 30 30 32 33 32 32 33 33 33 33 33 33 34 35 35 35 35 35 35 33 33 33 33 32 30 30 30 31 30 28 27 27 27 27 26 25 25 25 25 25 26 26 25 24 24 24
2 4 5 6 7 8 9 10 12 14 14 16 21 23 24 26 27 27 28 30 31 31 31 32 33 33 33 33 32 34 35 36 36 36 36 35 34 33 33 34 33 32 31 30 30 31 30 28 27 27 27 26 26 26 26 26 26 26 27 27 25 24 24
3 5 6 6 7 8 10 11 12 13 14 16 20 23 24 26 27 27 28 29 30 30 30 31 32 33 33 32 32 33 35 35 35 35 34 34 34 34 34 33 33 33 31 30 30 30 31 30 29 27 26 26 27 27 26 26 27 27 27 27 26 25 24
7 5 7 7 8 9 10 11 11 12 13 15 18 22 24 25 26 27 28 29 29 30 30 30 31 33 33 32 32 33 33 33 33 32 33 33 33 34 34 33 32 32 31 30 29 29 30 30 29 28 26 27 27 28 27 27 28 28 28 28 27 25 24
10 7 5 5 7 9 9 9 10 11 12 13 15 20 23 23 25 27 29 29 29 30 31 30 31 32 32 32 32 31 31 31 31 31 31 33 33 34 34 33 31 31 31 31 29 28 29 29 29 28 27 27 27 28 28 28 28 30 32 31 28 26 24
11 10 9 7 5 7 6 7 8 10 12 14 16 19 22 23 25 27 28 28 28 30 31 30 30 31 32 33 31 29 29 30 31 30 31 32 33 33 33 33 31 30 30 30 29 28 28 28 29 28 28 27 27 28 28 28 30 33 36 37 34 29 24
13 12 12 12 7 4 5 6 8 10 12 14 16 20 23 23 24 25 27 28 29 29 29 29 30 30 31 31 29 28 29 30 30 29 30 31 32 31 31 31 30 29 29 29 29 29 28 28 29 29 28 27 27 28 29 29 31 35 37 38 39 36 29
15 15 15 14 11 6 5 5 7 9 11 12 15 20 23 24 24 26 27 27 26 25 26 29 30 29 28 28 27 27 28 28 28 29 29 30 30 29 29 30 30 30 29 28 28 28 28 28 28 29 29 29 28 28 29 28 31 36 39 39 40 40 36
15 15 15 14 13 10 6 5 5 7 9 11 14 17 20 24 26 26 25 25 25 25 26 28 29 27 25 26 26 26 27 27 28 28 28 28 28 27 28 30 31 30 28 27 28 28 28 28 28 29 29 30 29 28 28 28 30 35 39 40 40 41 41
13 14 14 13 13 11 6 5 5 6 7 9 12 14 17 22 24 23 23 24 26 28 28 28 28 27 25 26 28 28 27 29 29 27 27 26 27 27 28 28 29 29 29 28 28 28 29 29 29 29 29 29 29 28 28 29 32 35 37 40 40 40 41
14 14 12 10 8 7 5 5 7 7 7 8 10 13 16 18 20 21 22 24 26 27 27 27 27 27 27 27 30 30 30 30 30 28 27 27 27 28 29 29 30 30 30 29 28 28 29 29 30 30 30 31 31 30 30 30 33 37 38 38 39 39 41
12 10 8 7 7 7 7 8 9 9 9 10 12 13 14 15 17 19 21 23 24 25 26 27 27 28 28 28 30 31 30 30 30 29 28 28 29 30 31 31 32 31 30 30 29 28 29 30 30 30 31 33 33 33 33 32 33 37 40 40 39 39 42
7 7 6 6 7 8 8 9 9 10 10 11 12 12 12 13 16 18 19 21 23 24 24 26 27 28 29 28 27 28 28 28 28 28 29 29 30 32 32 32 31 30 29 29 29 29 29 28 29 29 31 33 33 34 34 32 32 36 39 41 40 41 43
4 4 5 6 7 8 8 9 10 11 12 11 11 11 12 13 15 17 19 20 21 22 23 26 28 27 26 24 23 23 25 27 28 29 29 31 32 32 31 30 28 27 27 28 28 28 27 26 27 29 30 30 31 32 32 30 30 33 38 41 41 43 43
4 5 5 5 6 7 8 9 9 10 10 8 7 8 10 13 15 16 17 18 20 21 22 24 23 21 21 21 21 23 26 28 29 30 30 31 31 29 27 27 26 26 27 27 27 26 26 26 26 27 27 27 28 30 31 32 33 33 36 40 42 44 43
5 4 5 5 6 7 7 6 5 6 4 2 2 6 8 11 13 14 14 16 17 19 18 18 17 17 19 21 22 23 27 28 27 28 29 27 25 24 23 24 24 25 25 25 25 25 25 26 25 26 27 27 27 29 31 34 36 36 37 39 43 46 45
6 5 6 6 7 6 6 4 4 4 4 3 0 3 6 9 11 12 13 14 15 17 16 14 15 17 19 22 23 23 24 25 24 24 23 21 21 21 21 22 22 22 23 23 23 24 25 25 25 27 28 27 28 31 32 33 36 38 39 39 41 45 48
6 6 6 6 7 8 7 4 4 5 6 5 4 2 3 7 9 10 11 12 12 14 14 12 13 16 18 20 22 21 21 22 22 21 21 21 22 21 21 22 22 22 22 22 22 24 25 26 27 27 27 28 29 31 32 33 35 38 41 41 41 44 49
4 5 5 5 6 8 7 4 4 7 8 8 7 6 4 4 8 9 8 6 5 8 10 10 10 13 15 17 18 19 18 19 20 21 21 21 22 21 22 22 22 22 22 22 23 24 25 26 27 26 26 27 29 30 31 32 33 36 41 44 45 45 49
3 3 3 4 5 6 6 5 6 7 8 9 10 9 8 7 6 7 6 5 4 4 7 8 9 11 12 14 16 17 17 17 19 20 21 21 21 21 22 22 22 22 22 21 23 25 25 25 26 25 25 26 28 29 30 31 31 34 39 43 47 48 49
1 2 3 4 5 5 5 6 7 8 9 11 10 10 10 10 9 8 6 4 2 3 4 7 9 10 11 12 13 15 16 16 17 19 20 21 21 21 21 21 21 21 21 22 25 25 24 24 25 24 24 25 27 28 29 30 29 31 34 39 44 48 49
2 3 4 5 5 5 5 6 7 8 10 11 11 10 10 10 10 8 5 3 2 1 3 5 7 9 10 11 12 13 14 15 16 16 18 19 19 19 19 19 20 20 20 22 24 23 22 23 23 23 23 25 27 28 28 29 29 29 32 36 41 45 48
3 4 5 6 7 6 6 7 7 8 9 10 10 11 11 11 10 9 7 5 3 2 3 5 6 7 8 9 9 9 11 13 13 13 14 15 17 17 17 17 18 20 21 22 23 22 21 22 24 24 24 25 26 26 26 28 31 32 32 32 35 40 45
4 4 6 7 8 8 7 7 8 9 10 10 10 10 10 11 10 10 9 8 6 5 6 7 6 7 7 7 7 7 7 8 10 10 11 12 13 14 16 16 15 15 15 17 19 19 18 18 19 20 20 21 22 22 22 24 30 33 34 32 31 35 41
4 4 5 6 7 8 9 8 8 9 10 10 10 10 10 10 10 10 10 9 8 8 9 10 10 9 8 7 6 6 5 5 6 7 8 10 11 11 11 12 11 10 10 10 11 12 13 14 15 17 18 20 22 23 23 26 29 31 32 35 38 39 41
5 5 6 7 8 8 8 8 8 9 10 10 10 10 10 10 10 10 10 9 8 7 8 9 9 9 9 8 7 6 6 5 5 5 5 6 8 5 3 4 7 9 11 12 12 13 14 15 18 22 24 27 31 34 36 38 40 38 36 36 40 44 46
7 7 8 9 9 9 9 8 8 9 9 9 9 10 10 10 10 10 10 9 8 7 8 8 7 8 8 8 8 7 7 7 6 5 5 4 4 3 2 3 5 3 2 3 5 7 9 11 13 17 21 25 29 34 39 43 47 50 49 45 43 45 49

ECMWFFLT1_925_spd_039.txt.gz
Wind_Speed
14 14 14 14 16 18 18 20 21 22 27 30 32 35 35 34 34 33 33 35 35 34 34 34 33 32 32 31 30 29 27 25 25 25 25 24 23 23 23 21 21 21 21 20 19 20 20 19 19 19 19 19 19 18 18 17 17 15 15 14 12 12 12
15 14 14 15 16 18 20 20 21 23 27 30 31 34 34 34 35 34 33 35 37 36 36 36 35 34 33 32 31 30 28 27 25 24 24 24 24 24 24 23 22 22 22 21 20 19 20 20 21 20 20 20 20 19 19 19 18 17 15 15 14 13 13
16 15 16 16 17 18 20 20 21 25 28 30 31 33 35 36 37 37 35 35 36 36 36 36 35 34 33 33 32 31 30 28 27 26 25 25 25 24 24 23 23 22 22 22 21 20 20 21 22 22 22 21 21 20 20 19 19 18 16 16 16 15 15
18 18 17 17 18 18 19 20 21 24 28 31 32 34 36 37 37 37 36 36 37 36 36 36 36 35 34 34 33 32 32 31 29 28 27 25 25 24 24 24 24 23 23 23 23 21 20 21 22 22 23 22 22 21 21 20 19 18 17 17 16 16 16
21 20 17 16 17 16 18 20 21 24 29 32 34 34 34 35 35 35 36 36 36 37 38 38 36 35 34 35 33 32 34 34 32 29 27 26 25 24 24 25 25 25 24 23 23 23 22 21 22 22 23 23 23 22 22 22 21 20 19 18 17 17 17
18 17 15 15 15 15 18 20 23 28 31 32 33 33 32 33 34 35 35 35 35 36 36 36 35 34 34 35 33 32 33 34 33 31 29 27 26 25 26 26 26 25 25 24 23 23 23 23 23 23 24 24 23 23 23 23 22 21 21 20 19 18 18
15 15 14 14 15 18 20 20 22 27 29 29 30 31 32 33 34 34 34 34 35 36 35 35 35 35 35 35 34 33 33 34 34 33 31 29 28 28 27 27 26 26 25 25 24 24 24 24 24 24 24 24 24 23 23 23 23 22 22 22 21 20 20
15 16 15 16 17 17 17 17 19 22 25 26 27 30 32 33 33 34 34 34 35 35 36 37 37 36 35 35 34 35 35 34 34 33 33 31 31 30 29 27 27 27 26 25 25 25 25 25 25 25 24 24 24 24 24 24 24 23 22 22 22 22 21
16 17 16 17 17 14 12 14 16 19 22 25 26 28 30 31 32 34 34 34 34 35 37 37 37 36 35 34 35 35 35 34 34 34 34 33 32 31 31 29 28 28 27 27 26 26 26 26 25 25 25 25 24 24 24 24 24 24 23 23 23 23 22
13 14 12 12 12 12 13 15 14 15 17 19 22 26 29 30 31 33 34 34 34 36 37 37 36 35 34 34 34 34 34 34 34 34 35 35 34 33 33 31 29 29 29 28 27 26 26 26 25 25 25 25 24 24 24 24 25 25 24 24 24 23 23
8 9 8 8 8 9 12 14 13 13 13 15 20 25 27 29 30 31 33 35 35 35 36 36 35 35 35 34 34 34 34 35 35 35 36 36 35 35 35 33 31 30 30 30 29 27 26 26 26 26 25 25 25 25 25 25 25 25 25 24 24 24 24
7 6 7 8 8 9 10 10 12 13 12 14 20 23 24 27 29 29 31 33 34 34 34 35 34 35 35 34 34 34 35 35 35 35 37 37 36 35 35 35 33 31 30 29 29 29 28 27 27 27 27 27 27 27 27 27 27 26 26 25 25 25 24
6 6 6 7 8 8 8 8 10 13 12 14 19 22 22 25 27 28 29 31 33 32 33 34 34 34 34 33 33 34 35 35 35 35 36 36 35 35 34 34 34 32 30 29 29 30 30 29 28 28 28 28 28 28 29 28 28 28 27 27 26 25 25
6 9 8 8 9 9 9 9 9 11 13 15 18 21 22 24 26 27 27 29 30 31 31 33 33 34 34 33 32 33 34 35 34 34 35 35 35 34 33 33 33 33 31 30 29 30 30 30 30 29 28 29 30 30 30 30 29 29 29 29 28 27 26
4 9 11 9 9 10 10 10 10 11 12 14 17 19 21 22 23 25 26 26 28 29 30 31 32 33 33 32 32 32 33 33 32 32 33 33 34 34 33 32 32 32 32 30 30 29 30 30 30 29 29 29 30 30 30 30 31 31 31 30 29 29 28
1 6 11 11 10 10 10 10 11 12 12 13 15 17 20 21 21 23 24 25 26 28 29 29 31 32 32 32 32 31 31 31 31 31 32 33 33 34 33 32 30 31 31 31 30 29 29 29 30 30 29 29 29 30 30 30 31 33 35 34 32 29 28
4 3 5 7 7 7 8 9 11 11 13 14 15 18 20 21 21 22 23 24 26 28 28 28 29 31 32 31 31 29 29 31 31 30 31 33 32 32 32 32 30 30 31 31 31 30 29 28 29 30 30 30 30 30 30 31 32 35 38 38 36 32 29
5 5 4 4 4 3 4 6 9 11 12 13 15 19 20 20 21 22 23 24 25 26 27 28 29 30 31 30 28 28 29 30 30 30 30 31 31 31 31 31 30 29 29 30 31 30 29 29 29 31 30 30 30 31 31 31 33 37 39 41 41 38 32
7 7 6 5 5 5 5 4 4 6 7 7 11 16 19 20 21 22 23 23 23 24 27 29 29 29 30 30 28 28 29 29 30 30 29 30 30 29 28 29 30 29 29 29 30 30 30 30 30 30 31 31 30 31 31 31 33 37 40 42 43 43 38
7 7 7 6 6 7 6 5 3 3 4 5 8 11 15 19 20 20 21 22 23 25 26 27 28 28 28 30 30 29 29 29 29 30 29 28 28 28 28 29 31 31 29 29 29 30 31 31 30 31 32 32 31 31 31 31 32 36 40 43 43 45 44
7 7 7 7 6 4 3 3 3 3 4 5 6 7 10 14 17 18 20 22 24 25 25 26 26 27 27 29 30 30 29 29 29 29 29 28 28 29 30 31 31 32 31 30 30 31 31 31 31 32 32 32 32 31 31 31 32 35 38 42 44 45 46
8 8 7 6 4 4 4 4 4 4 4 5 6 7 8 11 14 17 20 22 24 25 26 26 26 27 27 28 30 31 30 29 29 29 28 29 29 31 32 31 31 31 31 30 29 29 30 30 31 31 31 32 32 32 32 31 32 35 37 41 43 44 46
11 8 6 5 5 5 4 4 5 5 5 7 8 10 10 11 13 17 19 21 23 25 26 27 27 28 28 29 30 31 30 29 29 28 28 29 29 31 31 30 29 29 29 29 29 29 30 29 29 30 31 32 32 32 32 31 33 37 39 40 42 43 47
5 4 7 7 7 7 6 6 5 5 6 8 9 11 11 12 13 15 18 20 22 24 25 26 28 29 29 28 28 29 29 29 29 28 28 28 29 30 29 29 28 28 28 29 29 29 29 28 27 28 29 31 32 32 32 31 33 37 39 41 42 43 46
9 9 9 8 8 8 8 8 8 8 9 10 11 12 12 12 14 14 16 19 21 22 25 26 27 28 28 27 26 26 27 28 28 27 28 28 29 28 28 27 27 26 27 28 28 27 26 26 26 26 28 29 31 33 33 32 32 35 37 39 41 42 46
10 9 8 8 9 10 10 9 8 9 9 7 7 8 10 11 13 14 14 17 20 21 24 25 24 24 26 27 25 25 26 26 27 27 27 27 27 25 25 25 25 24 25 26 25 25 25 26 26 26 27 28 29 31 33 33 33 34 36 38 40 43 45
8 8 8 8 9 10 10 8 6 6 7 6 5 6 8 9 11 13 13 15 18 19 20 21 21 21 24 26 25 24 25 25 26 27 26 25 24 24 24 24 24 24 25 25 24 24 24 25 25 25 25 26 27 28 30 31 32 33 34 36 39 43 45
8 8 8 8 8 8 9 8 6 6 6 5 5 5 7 8 9 10 11 13 15 16 16 17 20 21 22 23 24 24 23 24 25 25 25 24 24 23 24 24 23 24 24 23 23 23 24 24 24 23 23 25 27 28 29 29 30 31 33 35 37 41 45
6 7 7 7 6 7 8 7 5 5 6 7 7 7 5 7 8 8 9 11 11 13 13 13 16 20 20 20 22 22 22 23 24 23 22 22 23 23 22 22 22 22 22 22 22 22 22 23 23 22 21 23 26 28 28 29 29 30 33 35 36 39 43
6 6 6 6 6 7 8 7 4 5 6 6 7 7 7 5 6 8 7 7 7 9 12 11 13 16 17 18 19 20 20 20 21 21 21 21 21 21 21 21 21 21 21 21 21 20 20 22 22 21 20 22 25 26 27 27 27 28 32 36 38 39 41
7 7 7 6 5 6 7 5 5 5 6 7 6 6 7 4 3 7 5 3 2 5 8 9 10 13 15 16 17 18 17 17 17 19 19 18 19 19 19 19 19 18 18 19 20 20 19 20 20 20 20 21 22 23 24 24 24 25 28 33 37 40 40
7 7 8 6 6 7 7 4 4 4 4 5 4 4 6 5 3 4 3 3 2 3 4 6 9 10 11 13 14 15 16 15 15 16 17 17 17 17 17 17 17 17 17 17 18 19 19 18 18 19 19 19 20 21 21 22 22 23 25 27 31 36 38
6 6 7 6 5 6 6 3 3 2 2 4 5 6 5 5 4 3 2 2 4 4 4 5 7 9 9 10 11 12 14 14 14 14 15 16 15 14 14 15 15 15 15 16 16 17 17 17 16 17 17 18 19 19 20 20 20 21 23 23 24 31 36
6 5 6 6 5 4 3 2 2 2 4 5 6 7 6 5 5 4 3 2 1 3 6 6 6 6 8 9 9 10 11 12 11 11 12 14 14 13 13 13 14 15 14 13 13 13 14 15 16 16 17 17 16 17 18 18 19 19 18 14 11 17 28
7 6 6 6 6 5 3 2 2 3 5 6 6 6 6 6 7 7 6 6 5 3 4 6 6 6 7 8 7 8 8 9 9 9 9 11 13 11 8 6 7 8 7 5 4 3 4 6 7 8 9 8 8 8 9 11 13 14 15 14 13 11 16
6 5 4 4 3 3 2 2 3 4 5 6 5 6 7 7 8 8 7 7 7 7 6 5 5 6 7 7 5 5 7 8 10 9 8 9 11 11 7 4 3 3 5 5 4 2 2 3 3 6 9 10 9 9 9 11 15 20 23 25 26 25 21
4 3 3 2 2 1 2 3 4 4 5 6 6 6 7 8 8 8 7 7 7 7 7 7 7 7 5 5 6 5 3 5 6 6 7 8 7 8 9 8 7 7 6 5 5 4 3 4 5 6 8 9 10 11 13 15 17 22 25 28 30 31 29
2 3 3 2 2 2 3 4 4 4 5 6 6 7 8 9 9 8 8 8 7 6 7 7 7 8 8 6 6 7 6 5 6 5 3 3 3 6 6 6 8 10 10 9 10 9 8 7 6 6 6 8 10 12 14 16 18 20 24 27 30 33 33

ECMWFFLT1_925_spd_042.txt.gz
Wind_Speed
18 20 18 14 14 14 13 16 17 19 23 28 33 36 36 37 37 36 37 40 42 41 41 40 39 39 39 38 37 35 34 32 31 31 29 29 28 27 26 25 26 25 24 24 25 25 24 23 23 23 24 24 24 22 21 20 19 18 16 16 15 14 14
18 17 19 17 15 15 16 16 16 19 23 27 32 35 35 36 36 36 37 40 42 42 42 42 40 39 39 38 37 36 36 33 32 31 30 29 29 28 28 27 26 27 26 24 24 25 25 24 24 24 25 25 24 23 22 21 21 20 18 18 18 17 16
19 17 19 19 18 19 18 16 14 17 20 24 31 36 37 37 38 39 38 38 40 41 41 43 42 41 40 39 38 38 37 35 33 33 31 30 30 30 29 28 27 27 27 26 24 24 25 24 25 24 25 25 23 23 23 22 22 22 20 19 19 19 19
21 19 18 19 20 20 20 17 15 19 24 29 36 39 39 38 37 37 37 37 39 39 39 41 41 41 41 41 39 39 39 38 36 35 33 31 31 31 30 29 29 27 27 27 26 24 23 23 25 25 25 25 24 23 23 23 22 23 22 21 20 20 20
23 19 16 15 17 18 18 18 18 24 31 33 38 39 37 36 35 33 34 35 37 39 40 40 40 39 40 41 39 39 41 41 39 36 34 32 31 31 31 30 30 28 27 27 27 26 24 23 24 26 26 26 25 24 24 24 24 23 23 22 22 21 20
21 17 14 14 16 18 17 18 20 27 32 31 34 37 35 35 35 34 33 34 35 36 37 38 37 37 38 38 37 39 41 41 40 38 36 34 32 32 32 31 31 30 28 27 27 27 27 25 25 25 26 26 26 25 25 25 25 24 24 24 23 22 20
19 16 15 15 16 19 19 18 19 23 27 25 28 33 35 35 36 35 34 34 35 35 35 36 36 36 37 37 37 38 39 40 40 39 37 34 33 33 33 32 31 30 29 28 27 27 28 28 27 26 27 27 26 26 25 26 26 25 25 26 25 23 21
19 17 16 16 17 19 19 17 16 17 22 22 26 32 34 35 35 35 34 34 35 35 35 36 36 37 38 38 37 37 38 39 40 39 37 35 34 34 33 32 32 31 29 28 28 28 28 29 30 28 27 27 28 28 27 27 28 27 26 27 27 25 23
19 19 16 16 18 19 17 15 15 17 21 25 29 32 34 33 34 36 36 35 34 35 36 37 36 36 38 38 37 37 38 38 38 38 37 35 34 34 33 31 32 32 31 29 28 29 29 29 30 30 29 29 28 29 29 28 29 29 28 28 28 28 26
15 18 15 15 16 15 14 14 14 15 17 22 27 29 31 33 33 34 35 35 35 36 37 37 35 35 36 36 36 36 38 38 37 36 36 35 34 33 33 31 30 31 32 30 27 28 30 29 30 30 31 30 30 30 31 30 31 31 30 30 30 30 29
14 18 15 13 12 14 15 14 13 13 13 16 22 25 29 31 31 32 34 35 35 35 35 36 35 34 35 35 35 35 36 37 36 35 36 36 34 33 33 32 30 30 31 31 29 28 29 30 30 31 32 33 32 31 32 32 32 33 32 31 31 31 31
11 14 14 12 11 13 14 13 13 13 11 13 20 23 25 28 30 31 32 34 34 33 34 35 35 34 34 34 35 35 35 35 35 35 35 36 34 33 33 32 30 30 30 31 31 30 29 31 32 32 33 34 34 33 33 33 33 33 33 32 31 31 31
10 10 10 10 10 11 12 11 13 15 13 16 22 24 24 27 30 29 29 32 32 32 33 34 34 35 34 34 34 35 35 35 36 36 35 36 35 33 33 33 32 31 31 31 31 31 30 31 33 34 34 34 35 34 34 34 34 34 34 33 31 31 31
12 11 9 7 6 9 11 8 10 14 14 16 21 24 24 27 29 29 28 30 31 31 32 33 34 34 34 34 34 35 36 36 37 38 37 37 37 36 34 34 33 33 32 32 32 32 31 31 31 33 34 34 35 35 34 34 35 34 34 35 33 31 31
14 13 11 8 7 9 10 6 7 11 12 14 18 21 23 24 27 28 27 28 30 31 31 32 33 33 33 34 34 35 37 36 36 38 39 37 37 38 37 35 35 35 34 33 32 32 32 31 31 31 33 34 34 35 35 35 36 36 36 36 35 33 32
14 14 12 10 8 9 9 7 7 9 9 10 13 17 20 22 23 26 27 27 29 31 30 31 32 33 33 34 35 34 35 36 36 37 38 38 38 39 39 37 36 35 35 35 34 33 32 32 31 31 32 33 33 34 35 35 36 38 39 39 38 36 33
12 16 16 13 10 9 9 8 6 7 9 10 11 14 18 19 20 24 27 27 28 30 30 30 31 34 34 33 33 33 34 35 35 35 37 39 38 38 39 38 37 35 35 36 35 34 34 33 33 32 31 32 33 34 35 36 36 38 41 42 41 39 36
5 8 13 15 13 11 11 11 10 10 11 12 13 15 16 17 19 22 25 26 27 28 29 30 30 33 35 33 31 33 34 35 35 34 35 37 38 38 38 39 38 36 35 36 36 35 34 34 35 35 33 32 33 34 34 36 37 39 41 44 44 43 40
4 2 4 9 11 12 13 13 13 13 12 13 16 17 17 19 20 20 22 23 25 27 29 30 29 31 34 34 33 34 35 34 34 34 35 36 37 36 36 37 38 37 36 36 36 36 36 36 36 36 36 34 33 35 35 35 36 39 42 44 46 46 43
2 3 1 2 3 5 6 6 9 9 8 11 17 20 20 21 20 20 21 21 23 26 28 29 28 28 32 35 34 34 35 34 34 34 34 33 34 34 34 35 37 38 36 34 34 36 37 37 36 37 38 37 35 35 36 36 36 38 42 45 47 48 47
4 3 3 3 2 4 6 8 6 4 3 2 7 15 21 21 20 20 22 22 22 24 25 27 27 25 28 34 35 33 34 35 34 33 32 31 32 33 33 35 36 36 35 33 34 36 37 36 37 36 37 39 37 35 35 36 38 39 41 45 47 49 50
2 5 6 3 5 8 7 7 6 5 5 4 4 4 13 18 19 20 21 22 23 24 23 23 25 25 25 30 34 33 33 34 33 32 32 31 31 32 34 34 34 35 35 33 32 33 34 35 36 36 35 36 37 36 35 34 36 39 41 44 46 48 50
8 4 2 6 11 11 10 9 7 5 4 3 5 6 7 10 16 20 21 21 21 22 23 22 24 26 25 26 31 33 32 33 32 31 31 31 31 32 34 33 33 33 34 33 31 30 32 33 33 34 34 34 36 38 38 36 35 37 40 42 44 47 50
14 11 10 11 12 12 13 11 8 6 5 5 6 8 8 8 10 13 19 21 21 21 22 23 23 26 26 25 28 32 32 32 32 31 31 31 31 31 32 32 31 31 32 33 32 31 30 30 31 32 33 34 35 37 39 37 35 35 37 39 42 46 50
11 10 10 12 13 12 10 7 6 7 7 7 7 7 8 9 11 10 11 17 20 20 21 23 23 24 26 24 25 29 31 31 31 31 31 32 31 29 30 30 29 29 31 32 32 31 29 28 28 29 31 32 34 35 36 36 34 34 35 36 38 43 48
10 9 9 12 13 11 8 6 5 6 6 4 5 6 7 7 9 11 9 10 16 19 20 23 24 23 24 24 23 26 31 31 31 31 30 30 29 28 28 29 28 28 29 29 28 28 28 27 27 27 28 29 30 31 33 33 32 32 34 35 37 41 45
9 9 10 11 10 9 8 8 7 6 6 7 8 7 8 7 7 9 10 9 11 16 18 21 23 23 24 25 24 25 29 29 29 29 27 26 27 27 26 27 27 26 26 25 25 26 27 27 26 25 26 26 28 29 30 31 31 32 34 36 36 38 42
10 10 11 10 8 9 9 8 7 7 6 8 10 11 10 9 9 8 9 9 9 11 13 15 21 25 25 26 25 24 26 27 26 26 25 24 24 25 25 25 25 25 25 24 23 24 25 26 26 25 24 25 26 27 27 28 29 31 34 35 35 36 39
10 10 10 9 8 11 11 8 7 8 8 9 11 12 12 12 11 9 7 7 7 8 8 8 16 24 25 26 27 24 24 26 25 23 22 22 24 24 24 24 24 24 24 24 23 23 23 24 24 24 23 23 23 24 25 25 26 29 32 33 34 34 35
10 8 9 9 9 12 11 8 7 8 9 10 10 8 9 12 12 8 4 4 6 5 5 4 9 19 22 23 25 23 22 24 24 22 22 22 23 23 22 22 23 22 23 23 23 21 20 21 22 22 21 21 20 20 22 22 23 25 29 32 33 33 33
9 8 9 10 11 13 12 10 7 8 8 9 9 7 8 10 9 4 3 6 7 3 3 4 4 13 16 18 20 20 19 20 21 21 22 21 21 22 20 19 20 20 20 21 21 20 18 17 18 19 19 18 18 18 18 19 19 21 24 28 31 33 33
10 9 10 11 11 12 12 10 8 8 7 8 10 10 9 9 8 8 7 7 6 5 5 5 2 8 11 12 14 15 16 16 18 19 20 20 19 19 19 19 18 18 18 18 18 18 18 16 16 17 16 16 16 16 15 16 18 18 17 19 26 32 35
10 10 9 10 11 11 10 9 7 7 6 8 11 12 11 10 10 11 9 6 4 2 2 3 1 7 9 9 11 13 14 14 16 17 18 19 19 18 19 19 18 17 17 17 16 16 16 15 14 13 14 15 16 17 17 18 17 12 6 3 9 19 25
9 9 8 8 9 10 9 7 6 6 7 8 8 9 9 9 10 10 10 9 8 5 1 2 2 5 8 8 10 12 13 14 15 15 16 17 16 15 16 18 17 17 16 16 16 16 15 16 15 14 14 12 10 9 10 9 5 0 5 6 5 2 6
8 9 9 8 7 7 7 7 5 5 6 6 6 6 7 7 8 8 8 9 11 11 4 5 6 6 8 9 9 11 12 12 12 13 15 16 12 9 9 10 12 14 14 11 10 11 11 12 10 8 6 4 4 5 5 6 7 6 6 7 7 5 3
7 8 8 7 6 5 5 5 5 5 5 5 5 6 8 8 8 8 8 6 5 8 8 3 4 6 9 8 7 10 13 13 13 13 13 16 19 18 17 15 12 14 15 14 11 9 8 8 9 8 8 9 8 7 7 7 6 6 7 9 11 10 8
5 6 5 5 4 4 4 4 4 5 5 4 4 5 7 7 7 7 9 8 5 4 6 8 7 6 7 6 6 9 8 8 13 14 8 10 20 22 22 23 21 18 16 14 12 12 11 11 11 9 8 9 8 6 5 5 4 6 8 10 11 13 14
3 4 4 3 2 1 2 2 3 3 4 4 4 5 6 7 8 9 10 11 9 6 4 6 7 8 8 9 11 13 13 10 10 11 7 12 19 21 23 25 23 22 21 18 16 15 14 13 12 11 10 10 9 7 6 6 5 6 8 11 12 14 16

ECMWFFLT1_925_spd_045.txt.gz
Wind_Speed
19 19 18 16 17 17 17 18 19 21 25 28 31 33 33 35 37 37 38 40 42 41 42 41 40 42 43 43 42 41 40 39 38 37 35 35 34 33 34 34 34 32 31 31 31 32 32 30 28 29 29 28 27 26 25 23 23 23 21 20 19 19 19
19 18 17 16 16 17 18 18 19 23 26 29 32 33 32 33 36 37 38 40 42 42 43 43 41 42 44 44 43 41 41 39 39 38 36 35 34 33 34 35 35 34 32 32 31 30 31 30 28 28 29 29 28 27 26 24 24 23 22 21 21 20 20
19 17 18 18 17 17 17 17 19 24 27 29 32 34 35 36 37 37 37 38 40 40 41 42 41 42 43 43 42 41 41 40 39 39 37 37 36 35 34 34 35 35 33 32 31 30 30 30 29 29 29 30 29 28 28 26 25 25 24 23 23 22 21
20 20 19 18 18 17 17 17 18 23 29 31 35 38 39 38 36 36 36 37 39 39 40 41 41 41 41 42 43 42 42 42 41 41 40 39 39 37 34 33 33 34 33 32 32 31 30 30 29 29 30 31 31 30 30 28 27 26 26 25 24 24 23
20 19 18 16 17 16 16 17 18 22 28 32 36 38 38 36 34 34 36 37 39 40 41 42 41 40 39 39 41 42 44 45 43 43 42 40 38 37 35 34 32 32 33 33 31 31 31 31 30 30 31 32 32 31 31 30 29 28 27 27 26 26 26
18 17 16 16 16 17 17 18 20 25 30 32 35 35 35 35 35 36 37 37 39 40 40 40 39 38 37 37 38 40 42 44 44 43 42 40 39 37 37 36 34 33 33 33 33 31 31 32 33 33 32 33 33 32 32 31 31 30 29 29 28 28 27
18 17 17 17 16 17 17 17 20 27 31 32 33 34 35 35 35 36 37 38 39 40 39 40 40 39 39 38 38 39 40 41 43 42 41 40 39 39 39 38 36 35 33 32 33 32 31 31 33 34 34 33 33 33 33 32 32 31 31 31 30 30 29
20 19 18 19 17 17 17 17 18 23 27 29 29 31 34 35 34 35 37 38 39 39 39 40 40 40 40 39 39 40 40 40 41 41 40 39 39 39 39 38 37 36 34 33 33 34 34 33 32 34 35 34 34 34 34 33 33 32 32 33 32 32 31
19 19 19 19 18 17 16 16 17 21 24 26 27 29 33 34 34 35 37 38 37 38 39 40 41 41 41 39 40 40 40 40 40 40 39 38 39 39 38 38 38 37 35 35 34 34 35 35 33 33 35 36 35 34 35 34 34 34 34 34 34 34 33
18 16 18 19 17 15 16 15 15 17 18 21 25 28 31 32 32 34 34 34 35 37 39 40 40 41 41 40 40 40 40 40 40 40 40 39 39 39 38 37 37 37 37 36 35 34 35 36 35 34 34 36 37 36 36 36 36 36 36 36 36 36 35
19 17 17 19 18 15 17 16 15 15 14 17 23 27 30 31 30 31 31 31 32 35 37 39 39 40 41 41 41 40 40 40 40 40 41 41 39 39 38 37 36 37 37 37 36 35 35 35 36 36 35 36 37 38 39 38 38 38 38 38 38 37 37
19 18 16 20 20 18 17 16 15 16 14 17 23 26 28 30 30 30 30 31 31 32 35 37 38 39 40 41 41 40 41 40 40 40 41 42 41 39 39 38 36 37 38 38 37 36 35 35 36 37 38 38 38 39 40 40 39 39 39 39 38 38 37
17 17 15 18 19 18 17 16 16 17 16 17 23 26 27 29 30 31 31 31 32 32 33 35 37 38 39 40 40 40 41 42 42 42 42 42 42 40 39 39 38 38 38 39 38 36 36 36 37 38 39 40 40 40 40 41 41 40 40 39 38 38 38
16 14 13 16 18 18 18 17 16 17 16 17 22 25 27 29 31 33 32 32 33 33 33 35 36 37 37 38 39 41 42 43 43 43 42 42 42 41 40 40 39 38 38 38 39 38 38 37 38 39 40 40 41 41 40 40 41 40 40 39 39 38 38
16 13 12 15 17 17 17 15 15 16 16 16 20 24 26 29 31 32 32 32 34 35 35 35 36 37 37 37 39 41 42 42 41 42 42 41 41 42 41 40 40 39 38 38 39 40 39 38 38 39 39 40 41 42 41 40 40 41 40 41 40 39 39
13 12 13 14 14 15 15 15 15 15 15 15 17 22 25 27 30 31 31 32 34 35 35 35 36 37 37 37 38 40 41 41 40 40 40 40 41 43 42 41 40 39 39 39 40 40 40 39 38 38 39 40 40 40 40 40 40 41 42 42 42 41 39
11 11 12 13 13 12 13 13 13 13 14 14 17 22 24 25 28 30 30 31 32 34 35 34 35 37 37 37 37 39 39 40 40 39 40 41 41 42 43 41 40 40 39 39 39 39 39 40 39 38 38 39 40 39 40 41 41 42 43 43 43 42 40
9 10 11 12 12 11 11 12 13 13 14 14 17 22 23 23 26 28 29 30 30 32 34 34 34 36 38 37 37 39 39 39 40 39 40 41 41 41 42 42 40 39 39 39 39 39 39 40 40 39 38 38 40 40 40 42 43 43 43 44 45 44 43
9 8 8 9 10 9 10 10 10 11 12 14 17 21 23 24 24 26 29 31 30 31 33 34 33 33 37 38 38 39 40 39 39 39 39 41 41 41 40 40 40 39 39 40 39 39 40 40 40 40 38 37 38 40 42 42 44 44 45 45 46 46 45
9 8 7 7 7 6 8 8 7 9 11 14 17 19 20 22 22 25 28 30 30 31 32 33 32 32 35 38 38 39 40 40 39 39 39 39 40 39 38 39 40 40 39 39 39 39 39 40 39 40 40 39 38 39 42 42 43 45 46 46 46 47 47
8 8 8 7 8 6 6 7 6 6 7 9 13 15 17 18 19 21 24 27 29 30 30 31 31 30 33 37 38 38 40 41 40 39 39 38 38 38 38 38 39 39 39 38 39 40 39 39 39 40 41 41 39 38 40 42 43 45 46 47 47 47 48
12 13 11 9 9 8 8 9 9 7 7 7 4 9 16 19 19 18 20 22 25 25 27 30 30 30 32 35 37 38 39 40 40 39 38 37 36 36 37 38 38 39 39 38 37 38 38 38 39 40 40 41 40 39 39 39 40 43 45 46 46 46 47
15 14 13 11 11 11 12 12 12 10 10 10 9 4 3 11 17 20 19 20 21 21 22 25 27 29 30 33 37 37 38 39 39 38 38 37 36 36 37 38 38 38 38 37 36 35 36 38 39 39 39 39 39 41 40 38 36 38 41 44 44 45 46
13 12 11 11 10 12 15 13 12 12 11 10 10 10 8 5 6 13 18 20 22 21 21 21 24 27 28 30 35 37 36 38 38 38 38 37 37 37 36 36 36 36 36 36 36 35 35 36 36 36 36 37 38 39 40 38 35 34 34 37 41 44 45
12 11 11 12 12 12 14 13 12 13 13 13 13 13 12 11 8 5 11 17 22 23 22 23 24 25 25 27 31 35 36 36 38 38 37 38 38 36 35 35 34 34 34 34 34 34 33 31 31 32 33 34 36 37 37 36 35 33 32 31 34 40 44
11 10 10 14 16 17 18 17 15 14 15 16 17 16 16 16 15 10 6 9 15 20 24 27 28 26 24 24 27 33 36 36 37 38 37 37 36 34 33 33 32 31 31 32 32 32 31 30 29 29 31 32 33 34 34 33 33 32 32 29 28 33 40
12 13 12 14 18 20 19 18 17 16 17 19 18 17 17 18 17 15 12 8 7 10 14 22 28 29 26 25 26 30 34 35 36 37 36 35 34 33 31 31 31 30 30 30 29 29 29 29 29 28 28 29 30 30 31 31 30 30 29 29 27 28 33
10 12 14 16 19 20 18 16 16 17 17 17 17 17 18 17 16 16 15 10 7 6 6 9 22 31 30 27 27 29 32 34 34 34 34 33 32 31 29 29 29 29 29 28 28 28 28 29 29 28 27 26 27 28 29 29 29 28 27 27 27 28 30
10 10 12 15 17 18 17 14 13 14 14 15 14 14 15 15 16 16 13 10 10 7 6 6 14 29 32 30 30 30 32 33 33 32 32 31 31 30 28 27 28 27 27 28 27 26 27 27 27 27 26 24 24 25 26 27 27 27 27 27 28 30 32
11 10 11 13 15 17 17 14 11 10 11 12 13 13 14 14 13 13 11 11 13 10 7 6 5 20 29 30 30 30 31 32 32 32 31 29 29 29 27 26 27 26 27 28 27 26 25 25 26 25 24 23 22 22 22 23 24 25 27 29 30 31 33
11 12 11 13 14 17 16 13 11 11 11 13 14 14 17 16 13 13 14 13 13 11 8 8 2 11 20 24 25 27 29 30 30 29 29 28 28 28 27 26 26 25 25 26 26 25 24 22 23 23 22 22 22 21 20 19 19 20 23 27 30 31 31
10 12 12 11 12 15 15 13 12 11 11 13 14 14 16 16 14 14 15 15 14 12 9 7 3 6 13 17 19 22 24 26 26 26 26 26 27 27 27 26 25 24 24 25 25 24 23 21 21 21 21 21 20 21 20 18 16 16 17 19 22 25 28
8 10 11 10 9 11 13 11 9 9 9 10 13 14 13 13 14 16 16 15 15 12 8 6 4 7 12 14 16 19 22 23 23 23 23 23 24 25 25 24 24 24 24 24 24 23 21 20 20 20 20 20 20 20 19 16 13 11 9 9 11 13 16
6 8 12 13 11 10 10 9 8 7 7 8 10 12 13 12 14 16 16 15 14 12 8 5 4 6 11 15 16 18 21 22 22 22 22 20 19 19 21 23 24 24 24 23 23 22 21 21 20 19 18 19 20 19 15 11 10 9 7 6 5 3 3
6 8 11 12 11 8 7 8 8 7 7 7 8 9 10 12 13 16 17 16 14 13 9 3 2 3 7 11 14 16 18 20 21 21 20 17 14 13 13 16 19 20 19 19 20 21 21 21 19 16 14 13 12 14 15 13 11 9 7 6 4 2 1
7 9 9 11 11 7 6 6 7 6 6 7 7 8 9 10 11 13 16 16 15 13 9 4 2 3 4 6 8 12 15 16 16 18 19 19 19 17 15 12 12 14 14 12 14 18 19 18 16 14 13 13 12 12 13 13 11 8 7 6 4 3 2
6 8 9 10 9 5 5 5 5 6 7 7 7 8 8 9 9 10 14 16 15 12 8 5 8 9 8 7 6 10 14 14 13 16 20 22 22 24 25 24 22 20 19 16 14 14 14 15 15 14 13 13 14 14 13 12 11 9 9 7 5 4 2
7 8 7 8 7 4 5 6 6 7 7 7 8 8 8 8 9 10 12 14 14 11 7 6 11 13 13 12 11 11 12 12 14 20 23 23 24 27 30 31 29 26 25 24 21 19 18 17 17 16 14 12 12 13 13 13 12 12 11 10 9 7 6

ECMWFFLT1_925_spd_048.txt.gz
Wind_Speed
18 18 17 16 16 18 19 20 20 24 29 32 34 37 39 39 41 41 40 42 43 42 43 43 43 44 44 44 43 42 41 41 40 39 38 36 36 37 37 36 35 35 34 34 34 34 33 31 30 28 27 27 27 26 25 24 24 24 22 19 19 20 21
18 18 18 17 17 18 19 20 22 25 29 32 35 37 38 39 41 41 41 43 44 44 43 43 43 44 44 44 43 42 41 41 40 39 38 36 34 35 36 36 36 36 35 35 35 34 32 31 30 29 28 28 28 28 27 25 25 25 24 22 21 21 22
18 17 18 18 17 18 19 19 21 26 30 32 34 36 38 40 42 44 43 43 44 44 43 44 43 44 44 43 42 42 41 40 40 39 38 37 36 35 35 36 36 36 35 35 34 33 33 31 31 30 29 29 29 29 28 27 26 25 25 24 24 23 23
20 20 19 20 20 19 19 19 21 26 31 33 36 37 40 42 44 45 44 44 44 43 43 44 44 43 43 42 41 40 41 40 40 40 40 39 39 37 35 35 36 35 35 35 34 33 32 32 31 31 30 30 29 30 30 29 27 26 26 26 27 26 25
22 21 19 19 18 17 17 18 20 26 31 34 37 39 40 42 42 41 42 43 44 44 45 45 43 41 40 40 40 39 40 41 40 40 40 39 38 37 36 36 36 36 36 35 35 33 32 32 32 32 31 31 30 30 30 30 29 28 27 28 29 28 27
20 19 17 17 17 16 18 19 22 28 32 34 38 38 38 38 38 38 40 40 42 43 43 43 42 41 39 40 39 38 38 39 40 39 39 38 37 37 37 38 37 37 37 36 35 34 33 32 32 32 32 32 32 31 31 31 31 30 30 30 30 30 29
19 18 17 17 17 17 18 18 22 29 33 34 36 36 35 36 37 38 38 39 40 41 40 40 41 41 40 40 40 39 39 39 40 39 38 36 36 36 37 37 38 38 37 36 36 35 34 33 33 33 33 33 33 33 32 32 33 32 32 33 33 32 31
20 19 19 19 18 17 18 17 19 25 29 30 31 32 34 35 36 36 37 38 39 39 39 40 41 41 41 40 40 40 40 40 39 39 37 36 35 36 36 36 37 37 36 36 36 36 35 35 34 34 34 34 35 35 34 34 34 34 34 35 35 34 33
20 21 20 20 19 18 17 16 19 23 26 28 29 30 32 34 34 35 37 38 37 38 40 41 42 42 42 41 40 41 40 39 39 38 38 37 36 37 36 36 36 35 35 36 36 36 37 37 37 36 35 35 36 36 36 36 36 36 37 37 36 36 35
20 20 20 20 19 17 16 16 17 18 20 23 26 29 32 33 34 34 35 36 36 38 40 41 41 41 41 40 40 40 40 40 39 38 38 38 38 38 37 37 36 35 35 36 35 36 37 38 37 37 37 37 37 38 38 38 38 38 38 38 38 37 37
19 19 18 19 18 16 16 15 15 15 15 19 24 28 31 33 33 33 34 35 36 37 38 39 39 39 40 40 40 40 40 40 40 39 39 39 38 38 38 38 37 36 37 36 36 36 37 37 37 38 39 40 40 40 40 40 40 39 39 40 39 39 39
18 17 18 19 18 16 16 15 15 15 15 19 24 27 30 32 32 33 33 34 35 36 37 38 38 38 39 39 39 39 40 41 40 40 40 40 39 38 38 38 38 38 38 38 38 37 36 37 38 39 40 42 42 41 41 41 40 40 40 40 40 40 40
17 15 16 18 17 16 16 15 16 17 17 20 25 28 29 31 32 32 32 33 36 36 37 38 38 38 38 38 38 38 39 40 41 41 40 40 40 39 39 39 39 38 39 39 39 38 37 38 39 40 41 42 42 42 42 41 41 41 41 41 40 40 40
19 17 16 16 17 17 17 16 17 17 16 18 24 27 28 30 32 33 33 34 36 36 37 38 38 38 38 37 37 38 39 40 40 41 40 40 40 40 39 39 39 39 39 39 39 39 40 40 40 41 41 42 42 42 42 41 41 41 41 41 41 40 40
20 19 18 18 18 18 18 17 17 16 16 17 22 25 26 28 30 31 32 33 35 36 37 37 37 37 37 36 38 39 40 39 38 38 39 38 38 39 40 39 39 39 39 39 39 40 41 41 40 40 41 42 42 42 41 41 41 42 42 42 42 41 41
20 19 18 18 19 19 18 18 17 17 16 16 19 23 24 26 29 31 32 33 34 35 36 37 36 36 36 37 39 40 39 38 37 36 37 37 38 39 39 39 39 39 39 39 40 40 41 40 40 40 41 41 41 41 41 41 42 43 44 45 44 43 42
19 18 18 18 18 16 15 15 15 16 16 16 20 24 26 27 29 31 31 32 33 32 33 35 35 35 36 37 38 37 37 37 36 36 36 37 38 39 39 40 39 38 39 39 40 40 40 40 40 41 41 41 41 41 41 42 43 44 45 46 46 44 42
17 18 18 17 16 14 14 14 14 16 16 17 21 25 27 28 28 29 30 31 31 30 30 31 33 33 34 35 36 36 36 37 36 36 36 37 38 39 39 38 38 38 38 39 40 40 40 40 41 42 41 40 40 41 42 43 44 45 46 47 47 46 43
15 15 15 16 15 14 14 13 13 15 16 18 22 27 29 30 30 30 31 31 31 30 30 30 31 33 35 36 36 36 37 37 36 36 37 37 38 38 37 37 38 39 39 39 40 40 40 41 41 41 41 41 40 41 42 43 44 45 46 46 47 47 45
9 9 9 10 10 10 10 9 9 12 16 20 24 27 28 30 30 31 32 32 32 32 32 31 31 33 35 36 37 37 37 37 37 37 37 38 38 37 37 38 39 39 39 39 39 39 40 40 41 41 42 42 41 41 42 43 44 45 46 46 46 46 46
10 11 9 8 7 7 6 7 7 8 12 17 20 22 24 26 27 29 29 30 31 31 32 32 32 32 34 36 37 37 37 37 36 36 37 37 38 37 38 39 39 39 39 39 39 40 40 40 40 41 42 42 42 42 41 42 44 44 45 47 46 46 46
12 13 11 9 9 8 7 8 9 9 10 12 16 18 21 23 25 25 26 28 30 30 31 31 31 31 32 34 36 36 36 36 36 36 37 37 37 37 38 39 40 40 40 39 38 39 39 40 40 40 41 41 41 41 42 42 43 43 45 46 46 45 44
13 14 13 11 12 12 13 15 16 14 14 13 10 8 12 18 23 25 25 27 28 29 30 30 30 31 31 32 35 36 37 37 37 36 37 37 37 38 38 39 40 40 39 38 38 37 38 39 39 39 40 39 40 41 41 42 41 41 43 43 43 43 44
14 14 13 12 14 15 18 22 21 19 21 21 19 15 9 7 15 21 23 26 28 28 28 28 30 31 31 32 34 36 38 39 39 38 38 38 38 38 38 39 39 39 39 39 39 39 40 39 38 38 38 38 39 40 39 39 38 38 39 39 40 41 43
14 14 15 16 17 17 19 22 23 23 24 23 20 18 16 12 8 9 10 14 20 24 26 28 30 31 32 32 34 36 39 40 41 40 39 39 39 39 39 39 40 39 39 40 40 40 40 38 37 37 38 38 38 38 37 36 35 34 34 35 36 39 41
13 13 14 17 19 19 21 23 24 22 21 20 18 18 17 15 13 11 8 3 4 11 18 24 28 31 33 33 33 36 38 39 41 42 41 41 40 39 39 40 39 38 38 38 38 38 37 37 37 37 37 37 37 37 36 36 34 33 32 32 33 35 39
14 16 17 18 21 22 21 22 22 20 20 20 20 20 19 16 14 14 12 9 8 5 5 11 19 26 30 32 33 34 36 38 40 41 42 42 42 40 39 38 37 37 37 36 36 35 35 36 36 36 35 35 35 35 36 35 34 34 33 33 33 33 35
14 16 18 21 24 23 21 19 20 21 22 23 23 22 20 18 16 15 13 12 13 12 8 5 9 16 23 26 29 32 35 37 38 39 40 40 40 38 36 36 35 35 35 35 34 34 34 34 34 33 33 32 33 33 34 33 33 33 33 34 34 34 34
12 12 14 16 19 21 20 18 18 18 20 21 22 22 21 20 17 15 14 15 16 14 10 8 7 10 17 24 26 28 32 35 37 38 37 37 37 37 35 34 34 33 34 34 32 32 32 32 31 30 29 29 30 30 30 30 30 31 32 32 33 33 33
10 10 11 13 15 18 18 15 13 15 18 20 20 20 20 20 18 15 15 17 17 15 12 10 8 7 13 21 25 27 29 32 34 36 36 36 36 36 34 32 32 31 32 33 32 30 29 28 28 27 26 25 26 26 26 25 25 27 29 30 30 30 31
9 10 11 13 15 18 17 14 13 14 16 18 19 18 18 19 18 16 17 18 18 16 14 13 10 7 10 16 23 25 27 29 32 33 34 34 34 34 32 31 30 30 30 31 30 28 26 25 25 25 24 24 24 24 23 22 22 24 26 27 28 28 28
9 11 12 13 15 17 18 16 15 15 15 17 18 17 16 17 17 17 17 18 18 17 15 14 11 8 9 12 18 22 23 25 27 29 29 30 32 32 32 32 32 30 29 28 28 27 25 23 23 23 23 22 22 22 21 21 20 21 22 24 25 27 27
9 11 13 14 15 17 18 16 14 13 13 14 15 15 15 15 15 16 17 17 18 17 15 14 12 9 8 11 15 18 21 22 24 24 24 25 27 28 28 30 31 29 27 26 25 23 21 21 21 21 21 21 20 20 20 19 18 17 17 18 20 22 24
8 10 13 16 17 16 16 14 12 12 12 13 13 13 14 14 14 15 16 17 17 18 16 14 13 11 7 11 14 17 20 22 22 22 21 20 20 20 20 22 24 24 25 26 25 23 22 21 21 22 22 22 21 19 16 15 15 14 13 13 13 14 15
8 10 11 14 16 14 13 12 11 11 11 11 10 11 11 12 14 14 15 16 16 16 16 14 12 10 6 10 14 16 19 21 21 22 22 21 19 17 14 13 16 18 20 22 24 24 24 24 24 25 24 22 20 18 17 16 15 13 12 11 10 9 9
7 9 11 14 15 14 12 11 10 10 10 9 8 8 9 11 13 14 14 14 15 15 15 13 11 7 3 6 11 15 17 19 21 23 25 24 22 19 15 10 10 13 15 17 20 22 23 23 23 23 22 19 17 17 18 18 16 14 12 11 10 9 8
9 9 9 13 15 13 11 11 10 10 10 8 6 7 8 10 12 13 13 12 13 13 12 10 7 5 2 3 9 14 18 20 22 24 25 24 24 23 20 18 14 10 9 9 12 15 17 18 18 17 17 17 16 15 15 15 16 14 12 11 9 8 7
13 11 9 11 12 11 9 9 9 8 7 6 5 6 7 9 11 12 12 10 11 12 10 7 4 2 3 4 7 13 18 21 24 24 24 24 24 24 25 25 24 21 17 13 11 10 11 12 12 13 13 12 14 18 20 19 16 14 12 10 9 7 7